Peotone Weather
Station Historical Data
 
Daily Summary for September 01, 2014 Units:  English    Metric   Both
« Previous Day
Next Day »
Daily Weekly Monthly Yearly Custom
  Current: High: Low: Average:
Temperature: 72.6 °F 84.2 °F 70.1 °F 75.8 °F
Dew Point: 67.5 °F 73.7 °F 67.2 °F 70.1 °F
Humidity: 84% 96% 59% 84%
Wind Speed: 3.4mph 24.1mph 0.0mph 7.8mph
Wind Gust: 10.3mph 26.4mph - -
WindWSW - - SSW
Pressure: 29.85 in 29.91 in 29.76 in -
Precipitation: 0.00 in      
Historical Graphs
 
 
Tabular Data for September 01, 2014
Time Temperature Dew Point Pressure Wind Wind Speed Wind Gust Humidity Rainfall Rate (Hourly) solar Conditions
00:00 70.4 °F 68.3 °F 29.90 in Calm     93% 0.00 in 0.00 W/m2
00:03 70.4 °F 68.6 °F 29.90 in Calm     94% 0.00 in 0.00 W/m2
00:04 70.3 °F 68.5 °F 29.90 in South 4.6 mph 4.6 mph 94% 0.00 in 0.00 W/m2
00:05 70.3 °F 68.5 °F 29.90 in South 1.1 mph 4.6 mph 94% 0.00 in 0.00 W/m2
00:06 70.3 °F 68.5 °F 29.90 in South 1.1 mph 6.9 mph 94% 0.00 in 0.00 W/m2
00:08 70.2 °F 68.4 °F 29.90 in South 2.3 mph 4.6 mph 94% 0.00 in 0.00 W/m2
00:09 70.2 °F 68.4 °F 29.90 in South 1.1 mph 4.6 mph 94% 0.00 in 0.00 W/m2
00:10 70.1 °F 68.3 °F 29.90 in Calm   4.6 mph 94% 0.00 in 0.00 W/m2
00:11 70.1 °F 68.3 °F 29.90 in South 2.3 mph 2.3 mph 94% 0.00 in 0.00 W/m2
00:13 70.1 °F 68.3 °F 29.90 in South 2.3 mph 4.6 mph 94% 0.00 in 0.00 W/m2
00:14 70.1 °F 68.3 °F 29.90 in South 6.9 mph 8.1 mph 94% 0.00 in 0.00 W/m2
00:16 70.1 °F 68.3 °F 29.90 in South 1.1 mph 3.4 mph 94% 0.00 in 0.00 W/m2
00:17 70.1 °F 68.3 °F 29.90 in South 2.3 mph 3.4 mph 94% 0.00 in 0.00 W/m2
00:19 70.2 °F 68.4 °F 29.90 in South 3.4 mph 5.8 mph 94% 0.00 in 0.00 W/m2
00:21 70.3 °F 68.8 °F 29.90 in SSE 4.6 mph 8.1 mph 95% 0.00 in 0.00 W/m2
00:22 70.3 °F 68.8 °F 29.90 in South 5.8 mph 8.1 mph 95% 0.00 in 0.00 W/m2
00:23 70.4 °F 68.9 °F 29.90 in South 5.8 mph 8.1 mph 95% 0.00 in 0.00 W/m2
00:24 70.4 °F 68.6 °F 29.90 in SSE 3.4 mph 8.1 mph 94% 0.00 in 0.00 W/m2
00:26 70.5 °F 69.0 °F 29.90 in SSE 3.4 mph 4.6 mph 95% 0.00 in 0.00 W/m2
00:27 70.5 °F 69.0 °F 29.90 in SSE 3.4 mph 6.9 mph 95% 0.00 in 0.00 W/m2
00:28 70.5 °F 68.7 °F 29.90 in SSE 1.1 mph 6.9 mph 94% 0.00 in 0.00 W/m2
00:31 70.6 °F 68.8 °F 29.90 in South 4.6 mph 4.6 mph 94% 0.00 in 0.00 W/m2
00:32 70.6 °F 68.8 °F 29.90 in South 3.4 mph 4.6 mph 94% 0.00 in 0.00 W/m2
00:33 70.6 °F 68.8 °F 29.91 in South 3.4 mph 6.9 mph 94% 0.00 in 0.00 W/m2
00:34 70.6 °F 68.8 °F 29.90 in South 1.1 mph 6.9 mph 94% 0.00 in 0.00 W/m2
00:37 70.6 °F 68.8 °F 29.90 in South 3.4 mph 6.9 mph 94% 0.00 in 0.00 W/m2
00:38 70.6 °F 68.8 °F 29.90 in SSE 8.1 mph 8.1 mph 94% 0.00 in 0.00 W/m2
00:40 70.6 °F 68.8 °F 29.91 in SSE 4.6 mph 8.1 mph 94% 0.00 in 0.00 W/m2
00:42 70.6 °F 68.8 °F 29.90 in SSE 4.6 mph 6.9 mph 94% 0.00 in 0.00 W/m2
00:43 70.6 °F 68.8 °F 29.90 in SSE 3.4 mph 6.9 mph 94% 0.00 in 0.00 W/m2
00:45 70.6 °F 68.8 °F 29.90 in SSE 2.3 mph 6.9 mph 94% 0.00 in 0.00 W/m2
00:46 70.6 °F 68.8 °F 29.90 in SSE 6.9 mph 6.9 mph 94% 0.00 in 0.00 W/m2
00:47 70.6 °F 68.8 °F 29.90 in SSE 5.8 mph 8.1 mph 94% 0.00 in 0.00 W/m2
00:48 70.6 °F 68.8 °F 29.90 in SSE 2.3 mph 8.1 mph 94% 0.00 in 0.00 W/m2
00:49 70.6 °F 68.8 °F 29.90 in SSE 5.8 mph 8.1 mph 94% 0.00 in 0.00 W/m2
00:50 70.7 °F 68.9 °F 29.90 in SSE 5.8 mph 8.1 mph 94% 0.00 in 0.00 W/m2
00:51 70.7 °F 68.9 °F 29.90 in SSE 2.3 mph 8.1 mph 94% 0.00 in 0.00 W/m2
00:52 70.6 °F 68.8 °F 29.90 in SSE 5.8 mph 8.1 mph 94% 0.00 in 0.00 W/m2
00:53 70.7 °F 68.9 °F 29.90 in SSE 5.8 mph 8.1 mph 94% 0.00 in 0.00 W/m2
00:54 70.6 °F 68.8 °F 29.90 in SSE 3.4 mph 8.1 mph 94% 0.00 in 0.00 W/m2
00:55 70.6 °F 68.8 °F 29.90 in SSE 3.4 mph 8.1 mph 94% 0.00 in 0.00 W/m2
00:57 70.7 °F 68.9 °F 29.90 in SSE 3.4 mph 10.3 mph 94% 0.00 in 0.00 W/m2
01:00 70.6 °F 68.8 °F 29.90 in SSE 3.4 mph 10.3 mph 94% 0.00 in 0.00 W/m2
01:01 70.6 °F 68.8 °F 29.90 in SSE 3.4 mph 10.3 mph 94% 0.00 in 0.00 W/m2
01:02 70.6 °F 68.8 °F 29.89 in SSE 5.8 mph 5.8 mph 94% 0.00 in 0.00 W/m2
01:03 70.6 °F 68.8 °F 29.89 in SSE 4.6 mph 5.8 mph 94% 0.00 in 0.00 W/m2
01:05 70.6 °F 68.8 °F 29.89 in SSE 1.1 mph 9.2 mph 94% 0.00 in 0.00 W/m2
01:06 70.6 °F 68.8 °F 29.89 in SSE 4.6 mph 5.8 mph 94% 0.00 in 0.00 W/m2
01:07 70.5 °F 68.7 °F 29.89 in SSE 5.8 mph 6.9 mph 94% 0.00 in 0.00 W/m2
01:08 70.5 °F 68.7 °F 29.89 in South 2.3 mph 9.2 mph 94% 0.00 in 0.00 W/m2
01:09 70.5 °F 68.7 °F 29.89 in South 11.5 mph 11.5 mph 94% 0.00 in 0.00 W/m2
01:11 70.5 °F 68.7 °F 29.89 in South 3.4 mph 8.1 mph 94% 0.00 in 0.00 W/m2
01:12 70.5 °F 68.7 °F 29.89 in South 4.6 mph 8.1 mph 94% 0.00 in 0.00 W/m2
01:13 70.5 °F 68.7 °F 29.89 in South 5.8 mph 8.1 mph 94% 0.00 in 0.00 W/m2
01:16 70.5 °F 68.7 °F 29.89 in South 4.6 mph 9.2 mph 94% 0.00 in 0.00 W/m2
01:17 70.5 °F 68.7 °F 29.89 in South 2.3 mph 9.2 mph 94% 0.00 in 0.00 W/m2
01:18 70.5 °F 68.7 °F 29.89 in South 3.4 mph 9.2 mph 94% 0.00 in 0.00 W/m2
01:19 70.5 °F 68.7 °F 29.89 in South 3.4 mph 9.2 mph 94% 0.00 in 0.00 W/m2
01:20 70.5 °F 68.7 °F 29.89 in South 3.4 mph 9.2 mph 94% 0.00 in 0.00 W/m2
01:22 70.6 °F 68.8 °F 29.89 in South 4.6 mph 5.8 mph 94% 0.00 in 0.00 W/m2
01:23 70.5 °F 68.7 °F 29.89 in South 4.6 mph 9.2 mph 94% 0.00 in 0.00 W/m2
01:25 70.5 °F 68.7 °F 29.89 in South 5.8 mph 9.2 mph 94% 0.00 in 0.00 W/m2
01:28 70.5 °F 68.7 °F 29.89 in South 3.4 mph 6.9 mph 94% 0.00 in 0.00 W/m2
01:30 70.6 °F 68.8 °F 29.89 in South 4.6 mph 6.9 mph 94% 0.00 in 0.00 W/m2
01:31 70.5 °F 68.7 °F 29.88 in South 3.4 mph 6.9 mph 94% 0.00 in 0.00 W/m2
01:33 70.5 °F 68.7 °F 29.88 in South 3.4 mph 5.8 mph 94% 0.00 in 0.00 W/m2
01:34 70.5 °F 68.7 °F 29.88 in South 6.9 mph 6.9 mph 94% 0.00 in 0.00 W/m2
01:35 70.4 °F 68.6 °F 29.88 in South 3.4 mph 6.9 mph 94% 0.00 in 0.00 W/m2
01:36 70.5 °F 68.7 °F 29.88 in South 3.4 mph 6.9 mph 94% 0.00 in 0.00 W/m2
01:38 70.4 °F 68.6 °F 29.87 in SSE 5.8 mph 10.3 mph 94% 0.00 in 0.00 W/m2
01:41 70.3 °F 68.5 °F 29.87 in SSE 2.3 mph 10.3 mph 94% 0.00 in 0.00 W/m2
01:42 70.3 °F 68.5 °F 29.87 in SSE 6.9 mph 6.9 mph 94% 0.00 in 0.00 W/m2
01:45 70.3 °F 68.5 °F 29.87 in South 5.8 mph 9.2 mph 94% 0.00 in 0.00 W/m2
01:46 70.2 °F 68.4 °F 29.87 in South 2.3 mph 9.2 mph 94% 0.00 in 0.00 W/m2
01:47 70.2 °F 68.7 °F 29.87 in South 3.4 mph 5.8 mph 95% 0.00 in 0.00 W/m2
01:50 70.2 °F 68.7 °F 29.87 in South 6.9 mph 6.9 mph 95% 0.00 in 0.00 W/m2
01:51 70.2 °F 68.7 °F 29.87 in South 4.6 mph 4.6 mph 95% 0.00 in 0.00 W/m2
01:52 70.2 °F 68.7 °F 29.87 in South 8.1 mph 8.1 mph 95% 0.00 in 0.00 W/m2
01:53 70.1 °F 68.6 °F 29.87 in SSE 6.9 mph 8.1 mph 95% 0.00 in 0.00 W/m2
01:55 70.1 °F 68.3 °F 29.88 in SSE 5.8 mph 8.1 mph 94% 0.00 in 0.00 W/m2
01:56 70.1 °F 68.6 °F 29.87 in SSE 5.8 mph 6.9 mph 95% 0.00 in 0.00 W/m2
01:57 70.1 °F 68.6 °F 29.87 in SSE 6.9 mph 6.9 mph 95% 0.00 in 0.00 W/m2
01:59 70.1 °F 68.6 °F 29.87 in SSE 3.4 mph 6.9 mph 95% 0.00 in 0.00 W/m2
02:00 70.1 °F 68.6 °F 29.87 in SSE 3.4 mph 6.9 mph 95% 0.00 in 0.00 W/m2
02:01 70.1 °F 68.6 °F 29.87 in SSE 6.9 mph 8.1 mph 95% 0.00 in 0.00 W/m2
02:02 70.1 °F 68.6 °F 29.87 in SSE 4.6 mph 8.1 mph 95% 0.00 in 0.00 W/m2
02:04 70.1 °F 68.6 °F 29.87 in SSE 2.3 mph 8.1 mph 95% 0.00 in 0.00 W/m2
02:05 70.1 °F 68.6 °F 29.87 in SSE 6.9 mph 8.1 mph 95% 0.00 in 0.00 W/m2
02:06 70.1 °F 68.6 °F 29.87 in SSE 4.6 mph 4.6 mph 95% 0.00 in 0.00 W/m2
02:07 70.1 °F 68.6 °F 29.87 in SSE 3.4 mph 4.6 mph 95% 0.00 in 0.00 W/m2
02:10 70.1 °F 68.6 °F 29.87 in SSE 4.6 mph 9.2 mph 95% 0.00 in 0.00 W/m2
02:11 70.1 °F 68.6 °F 29.87 in SSE 4.6 mph 9.2 mph 95% 0.00 in 0.00 W/m2
02:12 70.1 °F 68.6 °F 29.87 in SSE 4.6 mph 5.8 mph 95% 0.00 in 0.00 W/m2
02:16 70.1 °F 68.6 °F 29.87 in SSE 6.9 mph 8.1 mph 95% 0.00 in 0.00 W/m2
02:17 70.1 °F 68.6 °F 29.86 in SSE 1.1 mph 5.8 mph 95% 0.00 in 0.00 W/m2
02:18 70.1 °F 68.6 °F 29.86 in SSE 1.1 mph 9.2 mph 95% 0.00 in 0.00 W/m2
02:21 70.1 °F 68.6 °F 29.86 in SSE 5.8 mph 9.2 mph 95% 0.00 in 0.00 W/m2
02:22 70.2 °F 68.7 °F 29.86 in SSE 5.8 mph 6.9 mph 95% 0.00 in 0.00 W/m2
02:23 70.2 °F 68.7 °F 29.86 in SSE 3.4 mph 9.2 mph 95% 0.00 in 0.00 W/m2
02:24 70.1 °F 68.6 °F 29.86 in SSE 8.1 mph 9.2 mph 95% 0.00 in 0.00 W/m2
02:25 70.2 °F 68.7 °F 29.86 in SSE 2.3 mph 9.2 mph 95% 0.00 in 0.00 W/m2
02:26 70.2 °F 68.7 °F 29.86 in SSE 4.6 mph 9.2 mph 95% 0.00 in 0.00 W/m2
02:27 70.2 °F 68.7 °F 29.86 in SSE 4.6 mph 10.3 mph 95% 0.00 in 0.00 W/m2
02:28 70.2 °F 68.7 °F 29.86 in SSE 2.3 mph 10.3 mph 95% 0.00 in 0.00 W/m2
02:29 70.2 °F 68.7 °F 29.86 in SSE 6.9 mph 10.3 mph 95% 0.00 in 0.00 W/m2
02:31 70.2 °F 68.7 °F 29.86 in SSE 3.4 mph 10.3 mph 95% 0.00 in 0.00 W/m2
02:33 70.2 °F 68.7 °F 29.86 in SSE 4.6 mph 8.1 mph 95% 0.00 in 0.00 W/m2
02:34 70.3 °F 68.8 °F 29.86 in SSE 6.9 mph 8.1 mph 95% 0.00 in 0.00 W/m2
02:35 70.3 °F 68.8 °F 29.86 in Calm   8.1 mph 95% 0.00 in 0.00 W/m2
02:36 70.3 °F 68.8 °F 29.86 in SSE 5.8 mph 5.8 mph 95% 0.00 in 0.00 W/m2
02:37 70.3 °F 68.8 °F 29.86 in South 5.8 mph 5.8 mph 95% 0.00 in 0.00 W/m2
02:38 70.3 °F 68.8 °F 29.86 in South 3.4 mph 5.8 mph 95% 0.00 in 0.00 W/m2
02:39 70.3 °F 68.8 °F 29.86 in South 5.8 mph 5.8 mph 95% 0.00 in 0.00 W/m2
02:40 70.3 °F 68.8 °F 29.86 in South 6.9 mph 6.9 mph 95% 0.00 in 0.00 W/m2
02:41 70.3 °F 68.8 °F 29.86 in South 4.6 mph 10.3 mph 95% 0.00 in 0.00 W/m2
02:43 70.3 °F 68.8 °F 29.86 in South 5.8 mph 10.3 mph 95% 0.00 in 0.00 W/m2
02:44 70.3 °F 68.8 °F 29.86 in South 6.9 mph 11.5 mph 95% 0.00 in 0.00 W/m2
02:45 70.3 °F 68.8 °F 29.86 in South 5.8 mph 11.5 mph 95% 0.00 in 0.00 W/m2
02:46 70.3 °F 68.8 °F 29.86 in South 6.9 mph 8.1 mph 95% 0.00 in 0.00 W/m2
02:47 70.3 °F 68.8 °F 29.86 in South 5.8 mph 8.1 mph 95% 0.00 in 0.00 W/m2
02:49 70.3 °F 68.8 °F 29.86 in South 5.8 mph 8.1 mph 95% 0.00 in 0.00 W/m2
02:50 70.3 °F 68.8 °F 29.86 in South 2.3 mph 8.1 mph 95% 0.00 in 0.00 W/m2
02:51 70.3 °F 68.8 °F 29.86 in South 2.3 mph 9.2 mph 95% 0.00 in 0.00 W/m2
02:52 70.3 °F 68.8 °F 29.86 in South 3.4 mph 9.2 mph 95% 0.00 in 0.00 W/m2
02:53 70.3 °F 68.8 °F 29.86 in South 1.1 mph 9.2 mph 95% 0.00 in 0.00 W/m2
02:54 70.3 °F 68.8 °F 29.86 in South 5.8 mph 11.5 mph 95% 0.00 in 0.00 W/m2
02:56 70.3 °F 68.8 °F 29.86 in South 5.8 mph 5.8 mph 95% 0.00 in 0.00 W/m2
02:57 70.3 °F 68.8 °F 29.86 in South 8.1 mph 10.3 mph 95% 0.00 in 0.00 W/m2
03:00 70.3 °F 68.8 °F 29.86 in South 4.6 mph 10.3 mph 95% 0.00 in 0.00 W/m2
03:01 70.3 °F 68.8 °F 29.86 in South 3.4 mph 10.3 mph 95% 0.00 in 0.00 W/m2
03:02 70.3 °F 68.8 °F 29.86 in South 2.3 mph 6.9 mph 95% 0.00 in 0.00 W/m2
03:03 70.3 °F 68.8 °F 29.86 in South 4.6 mph 6.9 mph 95% 0.00 in 0.00 W/m2
03:04 70.3 °F 68.8 °F 29.86 in South 5.8 mph 6.9 mph 95% 0.00 in 0.00 W/m2
03:05 70.3 °F 68.8 °F 29.86 in South 5.8 mph 8.1 mph 95% 0.00 in 0.00 W/m2
03:06 70.3 °F 68.8 °F 29.86 in South 2.3 mph 8.1 mph 95% 0.00 in 0.00 W/m2
03:08 70.3 °F 68.8 °F 29.86 in South 8.1 mph 8.1 mph 95% 0.00 in 0.00 W/m2
03:10 70.3 °F 69.1 °F 29.86 in South 6.9 mph 8.1 mph 96% 0.00 in 0.00 W/m2
03:11 70.3 °F 69.1 °F 29.86 in South 2.3 mph 8.1 mph 96% 0.00 in 0.00 W/m2
03:12 70.3 °F 69.1 °F 29.86 in South 3.4 mph 5.8 mph 96% 0.00 in 0.00 W/m2
03:13 70.3 °F 69.1 °F 29.86 in South 2.3 mph 8.1 mph 96% 0.00 in 0.00 W/m2
03:14 70.3 °F 69.1 °F 29.86 in South 5.8 mph 8.1 mph 96% 0.00 in 0.00 W/m2
03:16 70.3 °F 69.1 °F 29.86 in South 8.1 mph 8.1 mph 96% 0.00 in 0.00 W/m2
03:17 70.3 °F 69.1 °F 29.86 in South 3.4 mph 6.9 mph 96% 0.00 in 0.00 W/m2
03:18 70.3 °F 69.1 °F 29.86 in South 3.4 mph 6.9 mph 96% 0.00 in 0.00 W/m2
03:21 70.3 °F 69.1 °F 29.86 in South 4.6 mph 6.9 mph 96% 0.00 in 0.00 W/m2
03:22 70.3 °F 69.1 °F 29.86 in South 4.6 mph 9.2 mph 96% 0.00 in 0.00 W/m2
03:23 70.3 °F 69.1 °F 29.86 in South 1.1 mph 9.2 mph 96% 0.00 in 0.00 W/m2
03:25 70.4 °F 69.2 °F 29.86 in South 4.6 mph 9.2 mph 96% 0.00 in 0.00 W/m2
03:27 70.3 °F 69.1 °F 29.86 in South 2.3 mph 5.8 mph 96% 0.00 in 0.00 W/m2
03:28 70.3 °F 69.1 °F 29.86 in South 5.8 mph 5.8 mph 96% 0.00 in 0.00 W/m2
03:29 70.3 °F 69.1 °F 29.86 in South 8.1 mph 8.1 mph 96% 0.00 in 0.00 W/m2
03:31 70.3 °F 69.1 °F 29.85 in South 6.9 mph 8.1 mph 96% 0.00 in 0.00 W/m2
03:32 70.3 °F 69.1 °F 29.85 in SSE 4.6 mph 10.3 mph 96% 0.00 in 0.00 W/m2
03:33 70.3 °F 69.1 °F 29.85 in SSE 5.8 mph 10.3 mph 96% 0.00 in 0.00 W/m2
03:34 70.3 °F 69.1 °F 29.85 in South 3.4 mph 10.3 mph 96% 0.00 in 0.00 W/m2
03:35 70.3 °F 69.1 °F 29.85 in South 3.4 mph 10.3 mph 96% 0.00 in 0.00 W/m2
03:37 70.3 °F 69.1 °F 29.85 in South 1.1 mph 6.9 mph 96% 0.00 in 0.00 W/m2
03:38 70.3 °F 69.1 °F 29.85 in South 2.3 mph 6.9 mph 96% 0.00 in 0.00 W/m2
03:39 70.3 °F 69.1 °F 29.85 in South 2.3 mph 6.9 mph 96% 0.00 in 0.00 W/m2
03:40 70.4 °F 69.2 °F 29.85 in South 6.9 mph 6.9 mph 96% 0.00 in 0.00 W/m2
03:42 70.4 °F 69.2 °F 29.85 in South 5.8 mph 9.2 mph 96% 0.00 in 0.00 W/m2
03:44 70.4 °F 69.2 °F 29.85 in South 8.1 mph 9.2 mph 96% 0.00 in 0.00 W/m2
03:45 70.4 °F 69.2 °F 29.85 in South 3.4 mph 9.2 mph 96% 0.00 in 0.00 W/m2
03:48 70.5 °F 69.3 °F 29.85 in South 9.2 mph 9.2 mph 96% 0.00 in 0.00 W/m2
03:49 70.5 °F 69.3 °F 29.85 in South 2.3 mph 11.5 mph 96% 0.00 in 0.00 W/m2
03:50 70.5 °F 69.3 °F 29.85 in South 5.8 mph 11.5 mph 96% 0.00 in 0.00 W/m2
03:51 70.5 °F 69.3 °F 29.85 in South 5.8 mph 11.5 mph 96% 0.00 in 0.00 W/m2
03:54 70.5 °F 69.3 °F 29.85 in South 6.9 mph 9.2 mph 96% 0.00 in 0.00 W/m2
03:55 70.5 °F 69.3 °F 29.85 in South 5.8 mph 9.2 mph 96% 0.00 in 0.00 W/m2
03:56 70.5 °F 69.3 °F 29.85 in South 1.1 mph 9.2 mph 96% 0.00 in 0.00 W/m2
03:57 70.6 °F 69.4 °F 29.85 in South 4.6 mph 5.8 mph 96% 0.00 in 0.00 W/m2
04:00 70.6 °F 69.4 °F 29.85 in South 5.8 mph 11.5 mph 96% 0.00 in 0.00 W/m2
04:01 70.6 °F 69.4 °F 29.85 in South 5.8 mph 6.9 mph 96% 0.00 in 0.00 W/m2
04:02 70.6 °F 69.4 °F 29.85 in South 4.6 mph 8.1 mph 96% 0.00 in 0.00 W/m2
04:03 70.7 °F 69.5 °F 29.84 in Calm   8.1 mph 96% 0.00 in 0.00 W/m2
04:07 70.7 °F 69.5 °F 29.84 in SSE 8.1 mph 13.8 mph 96% 0.00 in 0.00 W/m2
04:08 70.7 °F 69.5 °F 29.84 in South 4.6 mph 13.8 mph 96% 0.00 in 0.00 W/m2
04:09 70.7 °F 69.5 °F 29.84 in South 5.8 mph 13.8 mph 96% 0.00 in 0.00 W/m2
04:12 70.7 °F 69.5 °F 29.84 in South 4.6 mph 6.9 mph 96% 0.00 in 0.00 W/m2
04:13 70.7 °F 69.5 °F 29.84 in South 4.6 mph 8.1 mph 96% 0.00 in 0.00 W/m2
04:14 70.7 °F 69.5 °F 29.84 in South 3.4 mph 8.1 mph 96% 0.00 in 0.00 W/m2
04:15 70.7 °F 69.5 °F 29.84 in South 8.1 mph 10.3 mph 96% 0.00 in 0.00 W/m2
04:16 70.7 °F 69.5 °F 29.84 in SSE 6.9 mph 10.3 mph 96% 0.00 in 0.00 W/m2
04:19 70.7 °F 69.5 °F 29.83 in South 8.1 mph 10.3 mph 96% 0.00 in 0.00 W/m2
04:20 70.7 °F 69.5 °F 29.83 in South 4.6 mph 10.3 mph 96% 0.00 in 0.00 W/m2
04:21 70.7 °F 69.5 °F 29.83 in South 9.2 mph 10.3 mph 96% 0.00 in 0.00 W/m2
04:24 70.8 °F 69.6 °F 29.83 in South 5.8 mph 11.5 mph 96% 0.00 in 0.00 W/m2
04:25 70.8 °F 69.6 °F 29.83 in SSE 6.9 mph 12.6 mph 96% 0.00 in 0.00 W/m2
04:26 70.8 °F 69.6 °F 29.83 in SSE 4.6 mph 12.6 mph 96% 0.00 in 0.00 W/m2
04:27 70.8 °F 69.6 °F 29.83 in South 6.9 mph 11.5 mph 96% 0.00 in 0.00 W/m2
04:29 70.8 °F 69.6 °F 29.83 in SSE 3.4 mph 11.5 mph 96% 0.00 in 0.00 W/m2
04:30 70.8 °F 69.6 °F 29.83 in SSE 6.9 mph 11.5 mph 96% 0.00 in 0.00 W/m2
04:31 70.8 °F 69.6 °F 29.83 in SSE 6.9 mph 8.1 mph 96% 0.00 in 0.00 W/m2
04:33 70.8 °F 69.6 °F 29.83 in South 5.8 mph 9.2 mph 96% 0.00 in 0.00 W/m2
04:34 70.8 °F 69.6 °F 29.83 in South 8.1 mph 9.2 mph 96% 0.00 in 0.00 W/m2
04:36 70.8 °F 69.6 °F 29.83 in SSE 6.9 mph 9.2 mph 96% 0.00 in 0.00 W/m2
04:37 70.8 °F 69.6 °F 29.83 in SSE 8.1 mph 11.5 mph 96% 0.00 in 0.00 W/m2
04:39 70.9 °F 69.7 °F 29.84 in South 5.8 mph 11.5 mph 96% 0.00 in 0.00 W/m2
04:40 70.9 °F 69.7 °F 29.84 in South 2.3 mph 11.5 mph 96% 0.00 in 0.00 W/m2
04:41 70.9 °F 69.7 °F 29.84 in South 6.9 mph 6.9 mph 96% 0.00 in 0.00 W/m2
04:42 71.0 °F 69.8 °F 29.83 in South 2.3 mph 6.9 mph 96% 0.00 in 0.00 W/m2
04:44 71.0 °F 69.8 °F 29.84 in South 8.1 mph 9.2 mph 96% 0.00 in 0.00 W/m2
04:45 71.0 °F 69.8 °F 29.84 in South 4.6 mph 9.2 mph 96% 0.00 in 0.00 W/m2
04:46 71.0 °F 69.8 °F 29.84 in SSW 12.6 mph 12.6 mph 96% 0.00 in 0.00 W/m2
04:47 71.0 °F 69.8 °F 29.83 in South 11.5 mph 12.6 mph 96% 0.00 in 0.00 W/m2
04:48 71.1 °F 69.9 °F 29.83 in South 5.8 mph 12.6 mph 96% 0.00 in 0.00 W/m2
04:50 71.1 °F 69.9 °F 29.83 in SSE 6.9 mph 12.6 mph 96% 0.00 in 0.00 W/m2
04:51 71.1 °F 69.9 °F 29.83 in SSE 3.4 mph 12.6 mph 96% 0.00 in 0.00 W/m2
04:52 71.1 °F 69.9 °F 29.83 in SSE 5.8 mph 10.3 mph 96% 0.00 in 0.00 W/m2
04:53 71.2 °F 70.0 °F 29.83 in SSE 3.4 mph 10.3 mph 96% 0.00 in 0.00 W/m2
04:55 71.2 °F 70.0 °F 29.83 in South 3.4 mph 12.6 mph 96% 0.00 in 0.00 W/m2
04:56 71.2 °F 70.0 °F 29.83 in South 3.4 mph 12.6 mph 96% 0.00 in 0.00 W/m2
04:57 71.2 °F 70.0 °F 29.83 in South 3.4 mph 5.8 mph 96% 0.00 in 0.00 W/m2
04:58 71.2 °F 70.0 °F 29.83 in South 6.9 mph 10.3 mph 96% 0.00 in 0.00 W/m2
05:00 71.2 °F 70.0 °F 29.83 in Calm   10.3 mph 96% 0.00 in 0.00 W/m2
05:01 71.2 °F 70.0 °F 29.83 in South 4.6 mph 8.1 mph 96% 0.00 in 0.00 W/m2
05:04 71.2 °F 70.0 °F 29.82 in SSE 4.6 mph 10.3 mph 96% 0.00 in 0.00 W/m2
05:05 71.3 °F 70.1 °F 29.82 in SSE 4.6 mph 12.6 mph 96% 0.00 in 0.00 W/m2
05:07 71.3 °F 70.1 °F 29.82 in South 4.6 mph 11.5 mph 96% 0.00 in 0.00 W/m2
05:09 71.3 °F 70.1 °F 29.82 in South 2.3 mph 11.5 mph 96% 0.00 in 0.00 W/m2
05:10 71.3 °F 70.1 °F 29.82 in SSE 6.9 mph 11.5 mph 96% 0.00 in 0.00 W/m2
05:11 71.3 °F 70.1 °F 29.82 in SSE 3.4 mph 11.5 mph 96% 0.00 in 0.00 W/m2
05:12 71.4 °F 70.2 °F 29.82 in SSE 4.6 mph 6.9 mph 96% 0.00 in 0.00 W/m2
05:14 71.4 °F 70.2 °F 29.82 in SE 4.6 mph 9.2 mph 96% 0.00 in 0.00 W/m2
05:15 71.4 °F 70.2 °F 29.82 in SSE 5.8 mph 9.2 mph 96% 0.00 in 0.00 W/m2
05:16 71.4 °F 70.2 °F 29.82 in South 6.9 mph 11.5 mph 96% 0.00 in 0.00 W/m2
05:18 71.4 °F 70.2 °F 29.82 in SSE 4.6 mph 12.6 mph 96% 0.00 in 0.00 W/m2
05:19 71.4 °F 70.2 °F 29.82 in South 8.1 mph 12.6 mph 96% 0.00 in 0.00 W/m2
05:20 71.5 °F 70.3 °F 29.82 in SSE 5.8 mph 12.6 mph 96% 0.00 in 0.00 W/m2
05:23 71.5 °F 70.3 °F 29.82 in South 12.6 mph 12.6 mph 96% 0.00 in 0.00 W/m2
05:24 71.5 °F 70.3 °F 29.82 in SSE 3.4 mph 12.6 mph 96% 0.00 in 0.00 W/m2
05:25 71.5 °F 70.3 °F 29.81 in South 6.9 mph 12.6 mph 96% 0.00 in 0.00 W/m2
05:26 71.5 °F 70.3 °F 29.82 in South 4.6 mph 12.6 mph 96% 0.00 in 0.00 W/m2
05:30 71.5 °F 70.3 °F 29.82 in SSE 3.4 mph 9.2 mph 96% 0.00 in 0.00 W/m2
05:31 71.6 °F 70.4 °F 29.82 in SSE 4.6 mph 9.2 mph 96% 0.00 in 0.00 W/m2
05:32 71.6 °F 70.4 °F 29.81 in South 2.3 mph 14.9 mph 96% 0.00 in 0.00 W/m2
05:35 71.6 °F 70.4 °F 29.81 in South 5.8 mph 14.9 mph 96% 0.00 in 0.00 W/m2
05:36 71.6 °F 70.4 °F 29.81 in South 5.8 mph 5.8 mph 96% 0.00 in 0.00 W/m2
05:40 71.7 °F 70.5 °F 29.81 in SSW 4.6 mph 12.6 mph 96% 0.00 in 0.00 W/m2
05:41 71.7 °F 70.5 °F 29.82 in SSW 12.6 mph 13.8 mph 96% 0.00 in 0.00 W/m2
05:42 71.7 °F 70.5 °F 29.82 in SSW 10.3 mph 13.8 mph 96% 0.00 in 0.00 W/m2
05:43 71.7 °F 70.5 °F 29.82 in South 6.9 mph 13.8 mph 96% 0.00 in 0.00 W/m2
05:46 71.7 °F 70.5 °F 29.82 in SE 11.5 mph 12.6 mph 96% 0.00 in 0.00 W/m2
05:47 71.8 °F 70.6 °F 29.82 in South 10.3 mph 12.6 mph 96% 0.00 in 0.00 W/m2
05:48 71.8 °F 70.6 °F 29.82 in South 6.9 mph 12.6 mph 96% 0.00 in 0.00 W/m2
05:51 71.8 °F 70.6 °F 29.82 in SSE 6.9 mph 12.6 mph 96% 0.00 in 0.00 W/m2
05:52 71.9 °F 70.7 °F 29.82 in South 10.3 mph 11.5 mph 96% 0.00 in 0.00 W/m2
05:53 71.9 °F 70.7 °F 29.82 in SSW 3.4 mph 11.5 mph 96% 0.00 in 0.00 W/m2
05:54 71.9 °F 70.7 °F 29.82 in South 6.9 mph 11.5 mph 96% 0.00 in 0.00 W/m2
05:56 71.9 °F 70.7 °F 29.82 in SSE 5.8 mph 11.5 mph 96% 0.00 in 0.00 W/m2
05:57 71.9 °F 70.7 °F 29.82 in South 5.8 mph 10.3 mph 96% 0.00 in 0.00 W/m2
05:58 71.9 °F 70.4 °F 29.82 in SSW 8.1 mph 10.3 mph 95% 0.00 in 0.00 W/m2
06:02 71.9 °F 70.4 °F 29.81 in SSW 8.1 mph 11.5 mph 95% 0.00 in 0.00 W/m2
06:03 71.9 °F 70.4 °F 29.81 in South 6.9 mph 11.5 mph 95% 0.00 in 0.00 W/m2
06:04 71.9 °F 70.4 °F 29.82 in SW 5.8 mph 13.8 mph 95% 0.00 in 0.00 W/m2
06:08 71.9 °F 70.4 °F 29.82 in SW 5.8 mph 11.5 mph 95% 0.00 in 0.00 W/m2
06:09 71.9 °F 70.4 °F 29.82 in SW 3.4 mph 11.5 mph 95% 0.00 in 0.00 W/m2
06:11 72.0 °F 70.5 °F 29.82 in South 11.5 mph 13.8 mph 95% 0.00 in 0.00 W/m2
06:13 72.0 °F 70.5 °F 29.82 in South 10.3 mph 11.5 mph 95% 0.00 in 0.00 W/m2
06:14 72.0 °F 70.5 °F 29.82 in SSW 4.6 mph 11.5 mph 95% 0.00 in 0.00 W/m2
06:15 72.0 °F 70.5 °F 29.82 in South 4.6 mph 11.5 mph 95% 0.00 in 0.00 W/m2
06:17 72.0 °F 70.5 °F 29.82 in South 5.8 mph 14.9 mph 95% 0.00 in 0.00 W/m2
06:18 72.1 °F 70.6 °F 29.82 in South 11.5 mph 14.9 mph 95% 0.00 in 0.00 W/m2
06:20 72.1 °F 70.6 °F 29.82 in SSW 9.2 mph 14.9 mph 95% 0.00 in 0.00 W/m2
06:23 72.1 °F 70.6 °F 29.82 in SSW 8.1 mph 13.8 mph 95% 0.00 in 0.00 W/m2
06:24 72.1 °F 70.6 °F 29.82 in SSW 2.3 mph 13.8 mph 95% 0.00 in 0.00 W/m2
06:25 72.1 °F 70.6 °F 29.82 in South 8.1 mph 13.8 mph 95% 0.00 in 0.00 W/m2
06:29 72.2 °F 70.7 °F 29.82 in South 9.2 mph 9.2 mph 95% 0.00 in 0.00 W/m2
06:30 72.2 °F 71.0 °F 29.82 in SW 9.2 mph 13.8 mph 96% 0.00 in 0.00 W/m2
06:31 72.2 °F 70.7 °F 29.82 in SSW 6.9 mph 13.8 mph 95% 0.00 in 0.00 W/m2
06:33 72.2 °F 70.7 °F 29.82 in SSW 4.6 mph 10.3 mph 95% 0.00 in 0.00 W/m2
06:34 72.3 °F 70.8 °F 29.82 in SSW 5.8 mph 10.3 mph 95% 0.00 in 0.00 W/m2
06:35 72.3 °F 70.8 °F 29.82 in SSW 5.8 mph 10.3 mph 95% 0.00 in 7.00 W/m2
06:36 72.3 °F 70.8 °F 29.82 in South 5.8 mph 5.8 mph 95% 0.00 in 7.00 W/m2
06:37 72.3 °F 70.8 °F 29.82 in South 10.3 mph 11.5 mph 95% 0.00 in 9.00 W/m2
06:38 72.3 °F 70.8 °F 29.82 in SSW 3.4 mph 11.5 mph 95% 0.00 in 9.00 W/m2
06:39 72.4 °F 70.9 °F 29.82 in South 2.3 mph 11.5 mph 95% 0.00 in 11.00 W/m2
06:40 72.4 °F 70.9 °F 29.82 in South 9.2 mph 11.5 mph 95% 0.00 in 9.00 W/m2
06:41 72.4 °F 70.9 °F 29.82 in South 5.8 mph 11.5 mph 95% 0.00 in 9.00 W/m2
06:42 72.4 °F 70.9 °F 29.82 in SSE 3.4 mph 8.1 mph 95% 0.00 in 14.00 W/m2
06:43 72.4 °F 70.9 °F 29.82 in South 8.1 mph 8.1 mph 95% 0.00 in 16.00 W/m2
06:44 72.4 °F 70.9 °F 29.82 in SSE 9.2 mph 16.1 mph 95% 0.00 in 16.00 W/m2
06:46 72.4 °F 70.9 °F 29.82 in South 8.1 mph 16.1 mph 95% 0.00 in 21.00 W/m2
06:48 72.4 °F 70.9 °F 29.82 in South 6.9 mph 14.9 mph 95% 0.00 in 28.00 W/m2
06:49 72.4 °F 70.9 °F 29.82 in South 9.2 mph 14.9 mph 95% 0.00 in 39.00 W/m2
06:50 72.5 °F 71.0 °F 29.82 in South 5.8 mph 14.9 mph 95% 0.00 in 39.00 W/m2
06:51 72.5 °F 71.0 °F 29.82 in South 5.8 mph 8.1 mph 95% 0.00 in 35.00 W/m2
06:54 72.5 °F 71.0 °F 29.81 in South 3.4 mph 13.8 mph 95% 0.00 in 44.00 W/m2
06:55 72.6 °F 71.1 °F 29.81 in South 2.3 mph 13.8 mph 95% 0.00 in 37.00 W/m2
06:57 72.6 °F 71.1 °F 29.81 in South 6.9 mph 19.5 mph 95% 0.00 in 40.00 W/m2
06:59 72.6 °F 71.1 °F 29.81 in SSE 8.1 mph 19.5 mph 95% 0.00 in 37.00 W/m2
07:00 72.7 °F 71.2 °F 29.81 in South 8.1 mph 19.5 mph 95% 0.00 in 35.00 W/m2
07:01 72.7 °F 71.2 °F 29.81 in South 12.6 mph 12.6 mph 95% 0.00 in 37.00 W/m2
07:02 72.7 °F 71.2 °F 29.81 in SSW 8.1 mph 12.6 mph 95% 0.00 in 35.00 W/m2
07:03 72.7 °F 71.2 °F 29.81 in South 8.1 mph 14.9 mph 95% 0.00 in 37.00 W/m2
07:04 72.8 °F 71.3 °F 29.81 in South 6.9 mph 14.9 mph 95% 0.00 in 42.00 W/m2
07:05 72.7 °F 71.2 °F 29.81 in South 11.5 mph 14.9 mph 95% 0.00 in 37.00 W/m2
07:06 72.8 °F 71.3 °F 29.81 in South 6.9 mph 14.9 mph 95% 0.00 in 39.00 W/m2
07:07 72.8 °F 71.3 °F 29.81 in South 6.9 mph 8.1 mph 95% 0.00 in 42.00 W/m2
07:08 72.8 °F 71.3 °F 29.81 in South 5.8 mph 8.1 mph 95% 0.00 in 42.00 W/m2
07:09 72.8 °F 71.3 °F 29.81 in South 2.3 mph 8.1 mph 95% 0.00 in 42.00 W/m2
07:11 72.8 °F 71.3 °F 29.80 in SSE 5.8 mph 10.3 mph 95% 0.00 in 42.00 W/m2
07:12 72.8 °F 71.3 °F 29.81 in SSE 11.5 mph 13.8 mph 95% 0.00 in 40.00 W/m2
07:13 72.8 °F 71.3 °F 29.81 in South 6.9 mph 13.8 mph 95% 0.00 in 37.00 W/m2
07:14 72.9 °F 71.4 °F 29.81 in South 14.9 mph 18.4 mph 95% 0.00 in 35.00 W/m2
07:15 72.9 °F 71.4 °F 29.81 in South 10.3 mph 18.4 mph 95% 0.00 in 40.00 W/m2
07:16 72.9 °F 71.4 °F 29.81 in SSE 8.1 mph 11.5 mph 95% 0.00 in 40.00 W/m2
07:18 72.9 °F 71.4 °F 29.81 in South 4.6 mph 13.8 mph 95% 0.00 in 35.00 W/m2
07:19 72.9 °F 71.4 °F 29.80 in SW 14.9 mph 14.9 mph 95% 0.00 in 40.00 W/m2
07:22 72.9 °F 71.4 °F 29.80 in SSW 14.9 mph 17.2 mph 95% 0.00 in 37.00 W/m2
07:23 72.9 °F 71.4 °F 29.80 in SSW 5.8 mph 17.2 mph 95% 0.00 in 35.00 W/m2
07:24 72.9 °F 71.4 °F 29.80 in South 6.9 mph 17.2 mph 95% 0.00 in 42.00 W/m2
07:27 73.0 °F 71.2 °F 29.80 in South 17.2 mph 17.2 mph 94% 0.00 in 39.00 W/m2
07:28 73.0 °F 71.2 °F 29.80 in South 6.9 mph 17.2 mph 94% 0.00 in 37.00 W/m2
07:29 73.0 °F 71.2 °F 29.80 in South 3.4 mph 17.2 mph 94% 0.00 in 37.00 W/m2
07:31 73.0 °F 71.2 °F 29.80 in South 12.6 mph 19.5 mph 94% 0.00 in 42.00 W/m2
07:33 73.1 °F 71.3 °F 29.80 in South 10.3 mph 12.6 mph 94% 0.00 in 49.00 W/m2
07:34 73.1 °F 71.3 °F 29.80 in South 5.8 mph 12.6 mph 94% 0.00 in 46.00 W/m2
07:35 73.1 °F 71.3 °F 29.80 in SSW 9.2 mph 16.1 mph 94% 0.00 in 42.00 W/m2
07:37 73.1 °F 71.3 °F 29.79 in South 18.4 mph 18.4 mph 94% 0.00 in 49.00 W/m2
07:38 73.2 °F 71.4 °F 29.79 in SSW 5.8 mph 19.5 mph 94% 0.00 in 53.00 W/m2
07:40 73.2 °F 71.4 °F 29.79 in South 8.1 mph 19.5 mph 94% 0.00 in 53.00 W/m2
07:41 73.2 °F 71.4 °F 29.79 in SSW 5.8 mph 19.5 mph 94% 0.00 in 62.00 W/m2
07:43 73.3 °F 71.5 °F 29.79 in South 11.5 mph 11.5 mph 94% 0.00 in 63.00 W/m2
07:44 73.3 °F 71.5 °F 29.79 in South 14.9 mph 14.9 mph 94% 0.00 in 63.00 W/m2
07:45 73.3 °F 71.5 °F 29.79 in SSE 10.3 mph 19.5 mph 94% 0.00 in 54.00 W/m2
07:46 73.3 °F 71.5 °F 29.79 in South 9.2 mph 9.2 mph 94% 0.00 in 53.00 W/m2
07:48 73.4 °F 71.6 °F 29.80 in South 9.2 mph 12.6 mph 94% 0.00 in 39.00 W/m2
07:49 73.4 °F 71.6 °F 29.80 in South 16.1 mph 16.1 mph 94% 0.00 in 42.00 W/m2
07:51 73.5 °F 71.7 °F 29.80 in SW 3.4 mph 21.9 mph 94% 0.00 in 58.00 W/m2
07:52 73.4 °F 71.6 °F 29.80 in SSE 10.3 mph 12.6 mph 94% 0.00 in 60.00 W/m2
07:54 73.5 °F 71.7 °F 29.79 in SSE 8.1 mph 13.8 mph 94% 0.00 in 60.00 W/m2
07:55 73.5 °F 71.7 °F 29.79 in SSW 6.9 mph 13.8 mph 94% 0.00 in 60.00 W/m2
07:57 73.6 °F 71.8 °F 29.79 in SW 17.2 mph 20.7 mph 94% 0.00 in 63.00 W/m2
07:59 73.6 °F 71.8 °F 29.79 in SSW 8.1 mph 20.7 mph 94% 0.00 in 54.00 W/m2
08:00 73.7 °F 71.9 °F 29.79 in SW 12.6 mph 20.7 mph 94% 0.00 in 67.00 W/m2
08:03 73.8 °F 72.0 °F 29.79 in South 6.9 mph 11.5 mph 94% 0.00 in 118.00 W/m2
08:05 73.9 °F 71.8 °F 29.79 in South 3.4 mph 11.5 mph 93% 0.00 in 114.00 W/m2
08:06 74.0 °F 71.8 °F 29.79 in South 9.2 mph 10.3 mph 93% 0.00 in 127.00 W/m2
08:07 74.0 °F 71.8 °F 29.79 in South 12.6 mph 16.1 mph 93% 0.00 in 107.00 W/m2
08:10 74.1 °F 71.9 °F 29.79 in SE 16.1 mph 16.1 mph 93% 0.00 in 93.00 W/m2
08:12 74.2 °F 72.1 °F 29.79 in South 9.2 mph 14.9 mph 93% 0.00 in 98.00 W/m2
08:13 74.2 °F 72.1 °F 29.79 in SSW 8.1 mph 14.9 mph 93% 0.00 in 81.00 W/m2
08:15 74.2 °F 72.1 °F 29.79 in South 12.6 mph 18.4 mph 93% 0.00 in 86.00 W/m2
08:17 74.2 °F 72.1 °F 29.79 in SSW 24.1 mph 24.1 mph 93% 0.00 in 90.00 W/m2
08:18 74.2 °F 72.1 °F 29.79 in South 9.2 mph 24.1 mph 93% 0.00 in 90.00 W/m2
08:20 74.2 °F 72.1 °F 29.78 in SSW 8.1 mph 24.1 mph 93% 0.00 in 95.00 W/m2
08:21 74.3 °F 72.2 °F 29.78 in South 8.1 mph 9.2 mph 93% 0.00 in 95.00 W/m2
08:22 74.3 °F 72.2 °F 29.78 in SSW 6.9 mph 9.2 mph 93% 0.00 in 95.00 W/m2
08:23 74.3 °F 72.2 °F 29.78 in SSE 10.3 mph 11.5 mph 93% 0.00 in 93.00 W/m2
08:24 74.4 °F 72.2 °F 29.78 in South 11.5 mph 16.1 mph 93% 0.00 in 90.00 W/m2
08:25 74.4 °F 72.2 °F 29.78 in SW 1.1 mph 16.1 mph 93% 0.00 in 83.00 W/m2
08:26 74.4 °F 71.9 °F 29.78 in South 17.2 mph 17.2 mph 92% 0.00 in 98.00 W/m2
08:27 74.4 °F 71.9 °F 29.78 in SSW 16.1 mph 19.5 mph 92% 0.00 in 77.00 W/m2
08:29 74.4 °F 71.9 °F 29.78 in South 5.8 mph 19.5 mph 92% 0.00 in 84.00 W/m2
08:31 74.4 °F 71.9 °F 29.78 in SSW 8.1 mph 19.5 mph 92% 0.00 in 91.00 W/m2
08:32 74.4 °F 71.9 °F 29.78 in South 10.3 mph 11.5 mph 92% 0.00 in 69.00 W/m2
08:34 74.5 °F 72.0 °F 29.78 in SSW 5.8 mph 16.1 mph 92% 0.00 in 76.00 W/m2
08:35 74.5 °F 72.0 °F 29.78 in South 9.2 mph 17.2 mph 92% 0.00 in 63.00 W/m2
08:36 74.5 °F 72.0 °F 29.78 in SSW 6.9 mph 10.3 mph 92% 0.00 in 63.00 W/m2
08:37 74.5 °F 72.0 °F 29.78 in South 10.3 mph 10.3 mph 92% 0.00 in 72.00 W/m2
08:38 74.5 °F 72.0 °F 29.78 in SSW 21.9 mph 21.9 mph 92% 0.00 in 77.00 W/m2
08:40 74.5 °F 72.0 °F 29.78 in SSE 17.2 mph 23.0 mph 92% 0.00 in 121.00 W/m2
08:41 74.5 °F 72.0 °F 29.78 in SSW 8.1 mph 23.0 mph 92% 0.00 in 121.00 W/m2
08:42 74.6 °F 72.1 °F 29.78 in South 14.9 mph 14.9 mph 92% 0.00 in 125.00 W/m2
08:43 74.6 °F 72.1 °F 29.78 in SE 8.1 mph 14.9 mph 92% 0.00 in 118.00 W/m2
08:44 74.7 °F 72.2 °F 29.78 in South 11.5 mph 14.9 mph 92% 0.00 in 125.00 W/m2
08:45 74.7 °F 72.2 °F 29.78 in South 5.8 mph 14.9 mph 92% 0.00 in 111.00 W/m2
08:46 74.7 °F 71.9 °F 29.78 in SSW 8.1 mph 14.9 mph 91% 0.00 in 111.00 W/m2
08:47 74.8 °F 72.0 °F 29.78 in SSW 10.3 mph 16.1 mph 91% 0.00 in 127.00 W/m2
08:49 74.8 °F 72.0 °F 29.78 in South 20.7 mph 20.7 mph 91% 0.00 in 135.00 W/m2
08:51 74.9 °F 72.1 °F 29.78 in SW 11.5 mph 20.7 mph 91% 0.00 in 141.00 W/m2
08:53 74.9 °F 72.1 °F 29.78 in South 4.6 mph 13.8 mph 91% 0.00 in 86.00 W/m2
08:54 74.9 °F 72.1 °F 29.78 in WSW 9.2 mph 13.8 mph 91% 0.00 in 88.00 W/m2
08:55 74.9 °F 72.1 °F 29.77 in SSE 11.5 mph 13.8 mph 91% 0.00 in 113.00 W/m2
08:56 75.0 °F 72.2 °F 29.77 in South 5.8 mph 5.8 mph 91% 0.00 in 125.00 W/m2
08:58 75.0 °F 72.2 °F 29.77 in SSW 11.5 mph 20.7 mph 91% 0.00 in 132.00 W/m2
08:59 75.0 °F 72.2 °F 29.77 in SSW 13.8 mph 20.7 mph 91% 0.00 in 121.00 W/m2
09:01 75.0 °F 72.2 °F 29.77 in SSE 13.8 mph 20.7 mph 91% 0.00 in 120.00 W/m2
09:02 75.0 °F 72.2 °F 29.77 in South 6.9 mph 17.2 mph 91% 0.00 in 153.00 W/m2
09:03 75.0 °F 72.2 °F 29.77 in SW 20.7 mph 20.7 mph 91% 0.00 in 137.00 W/m2
09:04 75.0 °F 72.2 °F 29.77 in SW 12.6 mph 20.7 mph 91% 0.00 in 135.00 W/m2
09:05 75.1 °F 72.3 °F 29.77 in SSW 10.3 mph 20.7 mph 91% 0.00 in 132.00 W/m2
09:06 75.1 °F 72.3 °F 29.77 in SSE 8.1 mph 20.7 mph 91% 0.00 in 134.00 W/m2
09:07 75.2 °F 72.4 °F 29.77 in South 8.1 mph 12.6 mph 91% 0.00 in 163.00 W/m2
09:09 75.2 °F 72.1 °F 29.77 in SW 4.6 mph 16.1 mph 90% 0.00 in 195.00 W/m2
09:10 75.2 °F 72.1 °F 29.77 in South 12.6 mph 17.2 mph 90% 0.00 in 195.00 W/m2
09:12 75.3 °F 72.2 °F 29.77 in South 12.6 mph 13.8 mph 90% 0.00 in 193.00 W/m2
09:13 75.3 °F 72.2 °F 29.76 in SSE 8.1 mph 13.8 mph 90% 0.00 in 190.00 W/m2
09:14 75.4 °F 72.3 °F 29.76 in SSW 10.3 mph 16.1 mph 90% 0.00 in 174.00 W/m2
09:15 75.5 °F 72.4 °F 29.77 in ESE 10.3 mph 16.1 mph 90% 0.00 in 229.00 W/m2
09:16 75.5 °F 72.4 °F 29.77 in South 13.8 mph 16.1 mph 90% 0.00 in 229.00 W/m2
09:18 75.6 °F 72.5 °F 29.77 in South 9.2 mph 16.1 mph 90% 0.00 in 167.00 W/m2
09:19 75.6 °F 72.5 °F 29.77 in SSE 10.3 mph 16.1 mph 90% 0.00 in 181.00 W/m2
09:20 75.7 °F 72.6 °F 29.77 in SSW 12.6 mph 19.5 mph 90% 0.00 in 186.00 W/m2
09:22 75.7 °F 72.6 °F 29.77 in South 18.4 mph 18.4 mph 90% 0.00 in 128.00 W/m2
09:23 75.7 °F 72.2 °F 29.77 in SSW 8.1 mph 18.4 mph 89% 0.00 in 128.00 W/m2
09:24 75.7 °F 72.6 °F 29.77 in SW 11.5 mph 18.4 mph 90% 0.00 in 88.00 W/m2
09:25 75.6 °F 72.1 °F 29.77 in SSW 8.1 mph 18.4 mph 89% 0.00 in 111.00 W/m2
09:27 75.6 °F 72.5 °F 29.77 in SW 8.1 mph 19.5 mph 90% 0.00 in 105.00 W/m2
09:28 75.6 °F 72.5 °F 29.77 in SSE 11.5 mph 19.5 mph 90% 0.00 in 104.00 W/m2
09:29 75.6 °F 72.5 °F 29.77 in South 16.1 mph 19.5 mph 90% 0.00 in 118.00 W/m2
09:31 75.6 °F 72.1 °F 29.77 in SSW 11.5 mph 19.5 mph 89% 0.00 in 142.00 W/m2
09:32 75.6 °F 72.1 °F 29.77 in SSW 3.4 mph 17.2 mph 89% 0.00 in 135.00 W/m2
09:34 75.6 °F 72.1 °F 29.77 in SSW 14.9 mph 19.5 mph 89% 0.00 in 116.00 W/m2
09:36 75.6 °F 72.1 °F 29.76 in SSE 9.2 mph 19.5 mph 89% 0.00 in 121.00 W/m2
09:37 75.6 °F 72.1 °F 29.76 in SSW 10.3 mph 19.5 mph 89% 0.00 in 123.00 W/m2
09:39 75.6 °F 72.1 °F 29.76 in South 17.2 mph 21.9 mph 89% 0.00 in 90.00 W/m2
09:40 75.6 °F 72.1 °F 29.76 in SSE 9.2 mph 21.9 mph 89% 0.00 in 90.00 W/m2
09:41 75.6 °F 72.1 °F 29.77 in South 9.2 mph 12.6 mph 89% 0.00 in 107.00 W/m2
09:44 75.5 °F 72.0 °F 29.77 in South 17.2 mph 17.2 mph 89% 0.00 in 93.00 W/m2
09:46 75.5 °F 72.0 °F 29.77 in SSW 4.6 mph 17.2 mph 89% 0.00 in 95.00 W/m2
09:47 75.5 °F 72.0 °F 29.77 in SSE 5.8 mph 14.9 mph 89% 0.00 in 93.00 W/m2
09:51 75.5 °F 72.0 °F 29.77 in SE 11.5 mph 16.1 mph 89% 0.00 in 77.00 W/m2
09:52 75.5 °F 72.0 °F 29.77 in SSW 10.3 mph 19.5 mph 89% 0.00 in 69.00 W/m2
09:53 75.4 °F 71.9 °F 29.78 in South 10.3 mph 19.5 mph 89% 0.00 in 69.00 W/m2
09:56 75.4 °F 71.9 °F 29.77 in South 11.5 mph 14.9 mph 89% 0.00 in 69.00 W/m2
09:57 75.4 °F 71.9 °F 29.77 in South 11.5 mph 14.9 mph 89% 0.00 in 72.00 W/m2
09:58 75.4 °F 71.9 °F 29.77 in SSE 12.6 mph 14.9 mph 89% 0.00 in 72.00 W/m2
10:00 75.3 °F 71.8 °F 29.78 in South 17.2 mph 18.4 mph 89% 0.00 in 53.00 W/m2
10:01 75.3 °F 71.8 °F 29.78 in SSE 10.3 mph 13.8 mph 89% 0.00 in 56.00 W/m2
10:02 75.3 °F 71.8 °F 29.77 in SSW 8.1 mph 13.8 mph 89% 0.00 in 56.00 W/m2
10:03 75.3 °F 71.8 °F 29.77 in South 6.9 mph 13.8 mph 89% 0.00 in 56.00 W/m2
10:07 75.3 °F 71.8 °F 29.77 in SW 19.5 mph 19.5 mph 89% 0.00 in 74.00 W/m2
10:08 75.3 °F 71.8 °F 29.77 in SSW 4.6 mph 19.5 mph 89% 0.00 in 70.00 W/m2
10:09 75.3 °F 71.8 °F 29.77 in SSW 8.1 mph 19.5 mph 89% 0.00 in 70.00 W/m2
10:10 75.3 °F 71.8 °F 29.77 in South 5.8 mph 19.5 mph 89% 0.00 in 62.00 W/m2
10:12 75.3 °F 71.8 °F 29.77 in SSW 6.9 mph 10.3 mph 89% 0.00 in 69.00 W/m2
10:13 75.3 °F 71.8 °F 29.77 in South 2.3 mph 10.3 mph 89% 0.00 in 69.00 W/m2
10:14 75.3 °F 71.8 °F 29.77 in SW 6.9 mph 11.5 mph 89% 0.00 in 76.00 W/m2
10:15 75.3 °F 71.8 °F 29.77 in SSW 6.9 mph 11.5 mph 89% 0.00 in 88.00 W/m2
10:18 75.3 °F 71.8 °F 29.78 in South 14.9 mph 18.4 mph 89% 0.00 in 88.00 W/m2
10:19 75.3 °F 71.8 °F 29.78 in South 17.2 mph 26.4 mph 89% 0.00 in 86.00 W/m2
10:21 75.4 °F 71.6 °F 29.77 in SSW 9.2 mph 9.2 mph 88% 0.00 in 107.00 W/m2
10:23 75.4 °F 71.9 °F 29.78 in SW 6.9 mph 10.3 mph 89% 0.00 in 98.00 W/m2
10:24 75.5 °F 72.0 °F 29.78 in South 12.6 mph 12.6 mph 89% 0.00 in 102.00 W/m2
10:25 75.5 °F 72.0 °F 29.78 in SSW 8.1 mph 12.6 mph 89% 0.00 in 107.00 W/m2
10:26 75.5 °F 71.7 °F 29.78 in South 6.9 mph 11.5 mph 88% 0.00 in 107.00 W/m2
10:29 75.6 °F 72.1 °F 29.78 in South 5.8 mph 12.6 mph 89% 0.00 in 158.00 W/m2
10:30 75.6 °F 72.1 °F 29.78 in SW 13.8 mph 13.8 mph 89% 0.00 in 169.00 W/m2
10:31 75.7 °F 72.2 °F 29.78 in South 11.5 mph 17.2 mph 89% 0.00 in 172.00 W/m2
10:32 75.7 °F 72.2 °F 29.78 in SSW 10.3 mph 17.2 mph 89% 0.00 in 172.00 W/m2
10:34 75.8 °F 72.3 °F 29.78 in SSW 9.2 mph 17.2 mph 89% 0.00 in 209.00 W/m2
10:35 75.9 °F 72.1 °F 29.78 in SSW 5.8 mph 17.2 mph 88% 0.00 in 195.00 W/m2
10:37 76.0 °F 72.5 °F 29.78 in South 4.6 mph 10.3 mph 89% 0.00 in 160.00 W/m2
10:38 76.1 °F 72.3 °F 29.78 in SW 5.8 mph 12.6 mph 88% 0.00 in 207.00 W/m2
10:39 76.2 °F 72.4 °F 29.78 in SSW 6.9 mph 14.9 mph 88% 0.00 in 227.00 W/m2
10:40 76.2 °F 72.4 °F 29.78 in South 8.1 mph 20.7 mph 88% 0.00 in 216.00 W/m2
10:42 76.3 °F 72.5 °F 29.78 in SW 9.2 mph 16.1 mph 88% 0.00 in 197.00 W/m2
10:43 76.3 °F 72.5 °F 29.78 in SW 12.6 mph 16.1 mph 88% 0.00 in 151.00 W/m2
10:44 76.4 °F 72.2 °F 29.78 in SSW 13.8 mph 16.1 mph 87% 0.00 in 151.00 W/m2
10:46 76.4 °F 72.2 °F 29.78 in WSW 10.3 mph 16.1 mph 87% 0.00 in 125.00 W/m2
10:48 76.4 °F 72.2 °F 29.79 in WSW 4.6 mph 13.8 mph 87% 0.00 in 114.00 W/m2
10:49 76.4 °F 72.2 °F 29.79 in SSW 2.3 mph 13.8 mph 87% 0.00 in 95.00 W/m2
10:51 76.5 °F 72.7 °F 29.79 in SW 6.9 mph 13.8 mph 88% 0.00 in 100.00 W/m2
10:53 76.5 °F 72.3 °F 29.79 in WSW 12.6 mph 17.2 mph 87% 0.00 in 188.00 W/m2
10:54 76.5 °F 72.3 °F 29.79 in WSW 5.8 mph 17.2 mph 87% 0.00 in 188.00 W/m2
10:56 76.5 °F 72.3 °F 29.80 in WSW 6.9 mph 17.2 mph 87% 0.00 in 153.00 W/m2
10:59 76.6 °F 72.4 °F 29.80 in West 12.6 mph 17.2 mph 87% 0.00 in 105.00 W/m2
11:01 76.6 °F 72.4 °F 29.81 in SW 16.1 mph 16.1 mph 87% 0.00 in 88.00 W/m2
11:02 76.6 °F 72.4 °F 29.81 in WSW 10.3 mph 16.1 mph 87% 0.00 in 88.00 W/m2
11:05 76.5 °F 72.3 °F 29.81 in WSW 11.5 mph 18.4 mph 87% 0.00 in 74.00 W/m2
11:07 76.5 °F 72.3 °F 29.81 in SW 10.3 mph 17.2 mph 87% 0.00 in 51.00 W/m2
11:08 76.4 °F 72.2 °F 29.81 in WSW 5.8 mph 17.2 mph 87% 0.00 in 62.00 W/m2
11:10 76.4 °F 72.2 °F 29.81 in SW 4.6 mph 17.2 mph 87% 0.00 in 76.00 W/m2
11:12 76.4 °F 72.6 °F 29.81 in SW 6.9 mph 9.2 mph 88% 0.00 in 111.00 W/m2
11:13 76.4 °F 72.6 °F 29.81 in SW 6.9 mph 13.8 mph 88% 0.00 in 141.00 W/m2
11:14 76.4 °F 72.6 °F 29.81 in SSW 12.6 mph 13.8 mph 88% 0.00 in 141.00 W/m2
11:16 76.3 °F 72.2 °F 29.81 in SW 4.6 mph 6.9 mph 87% 0.00 in 144.00 W/m2
11:17 76.3 °F 72.2 °F 29.81 in SW 6.9 mph 8.1 mph 87% 0.00 in 134.00 W/m2
11:18 76.4 °F 72.2 °F 29.81 in WSW 11.5 mph 11.5 mph 87% 0.00 in 132.00 W/m2
11:19 76.3 °F 72.2 °F 29.81 in WSW 10.3 mph 14.9 mph 87% 0.00 in 132.00 W/m2
11:22 76.4 °F 72.2 °F 29.80 in West 10.3 mph 13.8 mph 87% 0.00 in 213.00 W/m2
11:23 76.4 °F 72.2 °F 29.80 in SW 6.9 mph 13.8 mph 87% 0.00 in 216.00 W/m2
11:24 76.5 °F 72.3 °F 29.80 in West 10.3 mph 13.8 mph 87% 0.00 in 223.00 W/m2
11:25 76.5 °F 72.3 °F 29.80 in West 6.9 mph 13.8 mph 87% 0.00 in 214.00 W/m2
11:27 76.6 °F 72.4 °F 29.80 in SSW 4.6 mph 13.8 mph 87% 0.00 in 162.00 W/m2
11:29 76.7 °F 72.5 °F 29.79 in WSW 5.8 mph 13.8 mph 87% 0.00 in 202.00 W/m2
11:30 76.8 °F 73.0 °F 29.79 in WSW 9.2 mph 16.1 mph 88% 0.00 in 218.00 W/m2
11:31 76.9 °F 72.7 °F 29.79 in WSW 8.1 mph 16.1 mph 87% 0.00 in 218.00 W/m2
11:33 76.9 °F 72.4 °F 29.79 in WSW 5.8 mph 13.8 mph 86% 0.00 in 255.00 W/m2
11:34 77.0 °F 72.5 °F 29.79 in SW 6.9 mph 13.8 mph 86% 0.00 in 243.00 W/m2
11:35 77.0 °F 72.5 °F 29.79 in SW 5.8 mph 13.8 mph 86% 0.00 in 243.00 W/m2
11:36 77.1 °F 72.6 °F 29.79 in South 6.9 mph 10.3 mph 86% 0.00 in 209.00 W/m2
11:38 77.2 °F 72.7 °F 29.79 in WSW 6.9 mph 10.3 mph 86% 0.00 in 207.00 W/m2
11:40 77.3 °F 72.8 °F 29.79 in West 6.9 mph 13.8 mph 86% 0.00 in 301.00 W/m2
11:41 77.3 °F 72.8 °F 29.79 in WSW 10.3 mph 10.3 mph 86% 0.00 in 301.00 W/m2
11:42 77.4 °F 72.5 °F 29.79 in WSW 6.9 mph 10.3 mph 85% 0.00 in 301.00 W/m2
11:43 77.6 °F 73.1 °F 29.79 in South 10.3 mph 12.6 mph 86% 0.00 in 756.00 W/m2
11:45 78.3 °F 73.4 °F 29.79 in WSW 6.9 mph 13.8 mph 85% 0.00 in 577.00 W/m2
11:47 78.5 °F 73.3 °F 29.79 in WSW 12.6 mph 12.6 mph 84% 0.00 in 371.00 W/m2
11:48 78.5 °F 72.9 °F 29.79 in WSW 9.2 mph 12.6 mph 83% 0.00 in 471.00 W/m2
11:49 78.6 °F 73.0 °F 29.79 in SW 10.3 mph 14.9 mph 83% 0.00 in 418.00 W/m2
11:50 78.7 °F 73.1 °F 29.79 in West 8.1 mph 14.9 mph 83% 0.00 in 418.00 W/m2
11:51 78.9 °F 72.9 °F 29.79 in West 14.9 mph 14.9 mph 82% 0.00 in 418.00 W/m2
11:52 79.2 °F 72.9 °F 29.79 in SW 11.5 mph 14.9 mph 81% 0.00 in 932.00 W/m2
11:54 79.7 °F 73.7 °F 29.79 in West 11.5 mph 18.4 mph 82% 0.00 in 896.00 W/m2
11:55 79.8 °F 73.1 °F 29.79 in WSW 12.6 mph 18.4 mph 80% 0.00 in 896.00 W/m2
11:56 79.8 °F 72.3 °F 29.79 in West 10.3 mph 18.4 mph 78% 0.00 in 896.00 W/m2
11:57 79.7 °F 72.6 °F 29.79 in SSW 10.3 mph 16.1 mph 79% 0.00 in 336.00 W/m2
12:00 79.4 °F 72.3 °F 29.79 in West 4.6 mph 16.1 mph 79% 0.00 in 339.00 W/m2
12:01 79.4 °F 72.3 °F 29.79 in South 6.9 mph 16.1 mph 79% 0.00 in 329.00 W/m2
12:02 79.3 °F 72.6 °F 29.79 in SW 8.1 mph 12.6 mph 80% 0.00 in 329.00 W/m2
12:04 79.6 °F 72.5 °F 29.79 in WSW 11.5 mph 12.6 mph 79% 0.00 in 995.00 W/m2
12:05 79.8 °F 72.3 °F 29.79 in SSW 11.5 mph 12.6 mph 78% 0.00 in 995.00 W/m2
12:06 79.9 °F 72.4 °F 29.79 in WSW 6.9 mph 8.1 mph 78% 0.00 in 497.00 W/m2
12:08 80.1 °F 73.0 °F 29.79 in West 9.2 mph 12.6 mph 79% 0.00 in 476.00 W/m2
12:09 80.2 °F 72.3 °F 29.79 in WSW 16.1 mph 16.1 mph 77% 0.00 in 248.00 W/m2
12:12 79.9 °F 72.1 °F 29.79 in SW 3.4 mph 10.3 mph 77% 0.00 in 288.00 W/m2
12:13 79.9 °F 72.1 °F 29.79 in WSW 12.6 mph 13.8 mph 77% 0.00 in 366.00 W/m2
12:14 79.8 °F 71.9 °F 29.79 in West 8.1 mph 13.8 mph 77% 0.00 in 366.00 W/m2
12:16 79.6 °F 72.1 °F 29.79 in WSW 10.3 mph 12.6 mph 78% 0.00 in 257.00 W/m2
12:17 79.6 °F 72.1 °F 29.79 in WSW 9.2 mph 12.6 mph 78% 0.00 in 213.00 W/m2
12:20 79.2 °F 71.8 °F 29.79 in WSW 8.1 mph 18.4 mph 78% 0.00 in 165.00 W/m2
12:21 79.2 °F 71.8 °F 29.79 in WSW 18.4 mph 18.4 mph 78% 0.00 in 165.00 W/m2
12:22 79.4 °F 71.9 °F 29.79 in West 6.9 mph 18.4 mph 78% 0.00 in 165.00 W/m2
12:23 79.4 °F 71.9 °F 29.79 in WSW 10.3 mph 18.4 mph 78% 0.00 in 165.00 W/m2
12:26 79.9 °F 71.7 °F 29.79 in WSW 8.1 mph 18.4 mph 76% 0.00 in 371.00 W/m2
12:27 80.2 °F 71.9 °F 29.79 in WSW 16.1 mph 17.2 mph 76% 0.00 in 745.00 W/m2
12:28 80.2 °F 71.9 °F 29.79 in WSW 13.8 mph 17.2 mph 76% 0.00 in 745.00 W/m2
12:29 80.3 °F 71.7 °F 29.79 in WSW 10.3 mph 17.2 mph 75% 0.00 in 803.00 W/m2
12:32 81.4 °F 72.7 °F 29.78 in SW 13.8 mph 21.9 mph 75% 0.00 in 874.00 W/m2
12:33 81.5 °F 72.4 °F 29.78 in SW 8.1 mph 21.9 mph 74% 0.00 in 874.00 W/m2
12:34 81.6 °F 71.7 °F 29.78 in WNW 16.1 mph 21.9 mph 72% 0.00 in 851.00 W/m2
12:35 81.6 °F 70.9 °F 29.78 in WSW 17.2 mph 21.9 mph 70% 0.00 in 877.00 W/m2
12:38 81.5 °F 71.2 °F 29.78 in SW 10.3 mph 20.7 mph 71% 0.00 in 905.00 W/m2
12:39 81.6 °F 71.3 °F 29.78 in WSW 9.2 mph 20.7 mph 71% 0.00 in 840.00 W/m2
12:40 81.6 °F 71.3 °F 29.79 in West 8.1 mph 20.7 mph 71% 0.00 in 900.00 W/m2
12:41 81.6 °F 71.3 °F 29.79 in SW 17.2 mph 20.7 mph 71% 0.00 in 900.00 W/m2
12:43 81.3 °F 71.0 °F 29.78 in WSW 11.5 mph 18.4 mph 71% 0.00 in 244.00 W/m2
12:44 81.1 °F 71.2 °F 29.79 in WSW 8.1 mph 18.4 mph 72% 0.00 in 244.00 W/m2
12:45 80.9 °F 71.0 °F 29.79 in WSW 12.6 mph 18.4 mph 72% 0.00 in 176.00 W/m2
12:46 80.6 °F 71.2 °F 29.78 in WSW 10.3 mph 16.1 mph 73% 0.00 in 190.00 W/m2
12:48 80.2 °F 71.2 °F 29.79 in West 12.6 mph 16.1 mph 74% 0.00 in 199.00 W/m2
12:49 80.1 °F 71.1 °F 29.79 in West 10.3 mph 16.1 mph 74% 0.00 in 199.00 W/m2
12:50 79.8 °F 71.2 °F 29.78 in West 9.2 mph 16.1 mph 75% 0.00 in 308.00 W/m2
12:52 79.8 °F 71.2 °F 29.78 in West 8.1 mph 10.3 mph 75% 0.00 in 308.00 W/m2
12:53 79.8 °F 71.2 °F 29.78 in West 6.9 mph 13.8 mph 75% 0.00 in 870.00 W/m2
12:54 80.0 °F 71.4 °F 29.78 in West 9.2 mph 13.8 mph 75% 0.00 in 870.00 W/m2
12:55 80.1 °F 71.5 °F 29.78 in West 10.3 mph 13.8 mph 75% 0.00 in 870.00 W/m2
12:56 80.2 °F 71.6 °F 29.78 in WSW 10.3 mph 13.8 mph 75% 0.00 in 846.00 W/m2
12:58 80.8 °F 72.1 °F 29.78 in WSW 14.9 mph 14.9 mph 75% 0.00 in 868.00 W/m2
13:00 81.3 °F 71.8 °F 29.78 in WSW 8.1 mph 17.2 mph 73% 0.00 in 722.00 W/m2
13:01 81.3 °F 71.4 °F 29.78 in West 4.6 mph 17.2 mph 72% 0.00 in 775.00 W/m2
13:03 81.2 °F 71.7 °F 29.78 in WSW 3.4 mph 11.5 mph 73% 0.00 in 817.00 W/m2
13:04 81.4 °F 72.7 °F 29.78 in WSW 11.5 mph 11.5 mph 75% 0.00 in 846.00 W/m2
13:06 81.6 °F 71.7 °F 29.78 in WSW 9.2 mph 9.2 mph 72% 0.00 in 821.00 W/m2
13:08 81.6 °F 71.3 °F 29.79 in WNW 11.5 mph 13.8 mph 71% 0.00 in 710.00 W/m2
13:10 81.6 °F 70.9 °F 29.78 in WSW 11.5 mph 18.4 mph 70% 0.00 in 772.00 W/m2
13:11 81.6 °F 70.9 °F 29.78 in SW 9.2 mph 18.4 mph 70% 0.00 in 838.00 W/m2
13:12 81.8 °F 71.5 °F 29.78 in SSW 9.2 mph 11.5 mph 71% 0.00 in 870.00 W/m2
13:13 81.9 °F 71.6 °F 29.79 in SW 8.1 mph 13.8 mph 71% 0.00 in 870.00 W/m2
13:15 82.1 °F 71.3 °F 29.79 in WSW 6.9 mph 13.8 mph 70% 0.00 in 304.00 W/m2
13:16 82.0 °F 70.8 °F 29.79 in WNW 8.1 mph 13.8 mph 69% 0.00 in 316.00 W/m2
13:18 81.8 °F 70.2 °F 29.79 in West 11.5 mph 16.1 mph 68% 0.00 in 302.00 W/m2
13:19 81.4 °F 69.8 °F 29.79 in West 8.1 mph 16.1 mph 68% 0.00 in 944.00 W/m2
13:21 81.5 °F 70.8 °F 29.79 in WSW 11.5 mph 11.5 mph 70% 0.00 in 1042.00 W/m2
13:22 81.6 °F 70.4 °F 29.79 in West 10.3 mph 11.5 mph 69% 0.00 in 1042.00 W/m2
13:23 81.7 °F 70.6 °F 29.79 in SW 13.8 mph 18.4 mph 69% 0.00 in 1042.00 W/m2
13:24 81.7 °F 70.6 °F 29.79 in WSW 14.9 mph 18.4 mph 69% 0.00 in 1042.00 W/m2
13:25 81.8 °F 71.1 °F 29.79 in SW 6.9 mph 18.4 mph 70% 0.00 in 251.00 W/m2
13:27 81.8 °F 71.1 °F 29.79 in WNW 9.2 mph 10.3 mph 70% 0.00 in 292.00 W/m2
13:28 81.7 °F 71.0 °F 29.79 in West 12.6 mph 12.6 mph 70% 0.00 in 316.00 W/m2
13:29 81.7 °F 71.0 °F 29.79 in WNW 14.9 mph 14.9 mph 70% 0.00 in 316.00 W/m2
13:30 81.8 °F 71.5 °F 29.79 in WSW 6.9 mph 14.9 mph 71% 0.00 in 960.00 W/m2
13:33 82.0 °F 71.3 °F 29.78 in WNW 6.9 mph 13.8 mph 70% 0.00 in 877.00 W/m2
13:34 82.0 °F 71.3 °F 29.78 in SW 8.1 mph 13.8 mph 70% 0.00 in 819.00 W/m2
13:35 82.1 °F 71.8 °F 29.78 in WSW 8.1 mph 13.8 mph 71% 0.00 in 745.00 W/m2
13:36 82.3 °F 72.0 °F 29.78 in West 10.3 mph 13.8 mph 71% 0.00 in 798.00 W/m2
13:38 82.9 °F 72.1 °F 29.78 in West 8.1 mph 16.1 mph 70% 0.00 in 872.00 W/m2
13:39 82.9 °F 71.7 °F 29.78 in West 8.1 mph 16.1 mph 69% 0.00 in 810.00 W/m2
13:40 82.9 °F 71.7 °F 29.78 in West 14.9 mph 16.1 mph 69% 0.00 in 865.00 W/m2
13:41 82.9 °F 71.7 °F 29.78 in West 14.9 mph 16.1 mph 69% 0.00 in 865.00 W/m2
13:44 82.8 °F 71.6 °F 29.78 in WSW 8.1 mph 18.4 mph 69% 0.00 in 916.00 W/m2
13:45 82.8 °F 71.6 °F 29.78 in WSW 8.1 mph 18.4 mph 69% 0.00 in 916.00 W/m2
13:46 82.9 °F 71.3 °F 29.78 in WSW 10.3 mph 18.4 mph 68% 0.00 in 833.00 W/m2
13:47 83.0 °F 71.8 °F 29.78 in West 8.1 mph 10.3 mph 69% 0.00 in 833.00 W/m2
13:50 82.6 °F 70.5 °F 29.78 in WSW 9.2 mph 13.8 mph 67% 0.00 in 158.00 W/m2
13:51 82.5 °F 70.9 °F 29.78 in WNW 11.5 mph 14.9 mph 68% 0.00 in 158.00 W/m2
13:52 82.4 °F 70.8 °F 29.78 in WSW 11.5 mph 17.2 mph 68% 0.00 in 174.00 W/m2
13:56 81.7 °F 71.4 °F 29.78 in West 4.6 mph 9.2 mph 71% 0.00 in 849.00 W/m2
13:57 81.9 °F 72.0 °F 29.78 in West 9.2 mph 10.3 mph 72% 0.00 in 773.00 W/m2
13:58 82.0 °F 72.1 °F 29.78 in West 8.1 mph 10.3 mph 72% 0.00 in 773.00 W/m2
14:01 82.2 °F 71.9 °F 29.78 in WSW 11.5 mph 18.4 mph 71% 0.00 in 689.00 W/m2
14:02 82.3 °F 71.5 °F 29.78 in WNW 6.9 mph 13.8 mph 70% 0.00 in 689.00 W/m2
14:03 82.3 °F 71.5 °F 29.78 in West 10.3 mph 13.8 mph 70% 0.00 in 891.00 W/m2
14:04 82.4 °F 71.6 °F 29.78 in West 13.8 mph 17.2 mph 70% 0.00 in 891.00 W/m2
14:06 82.6 °F 71.8 °F 29.78 in WSW 10.3 mph 18.4 mph 70% 0.00 in 937.00 W/m2
14:09 83.0 °F 71.8 °F 29.78 in WSW 11.5 mph 18.4 mph 69% 0.00 in 823.00 W/m2
14:11 83.2 °F 72.0 °F 29.78 in WSW 5.8 mph 18.4 mph 69% 0.00 in 898.00 W/m2
14:12 83.4 °F 73.0 °F 29.78 in WNW 12.6 mph 13.8 mph 71% 0.00 in 898.00 W/m2
14:15 83.2 °F 72.4 °F 29.78 in SW 9.2 mph 13.8 mph 70% 0.00 in 796.00 W/m2
14:16 83.2 °F 72.4 °F 29.78 in WSW 11.5 mph 13.8 mph 70% 0.00 in 816.00 W/m2
14:17 83.2 °F 71.6 °F 29.78 in SW 6.9 mph 13.8 mph 68% 0.00 in 816.00 W/m2
14:20 83.1 °F 71.4 °F 29.78 in SW 10.3 mph 13.8 mph 68% 0.00 in 817.00 W/m2
14:22 83.3 °F 72.1 °F 29.78 in WSW 12.6 mph 12.6 mph 69% 0.00 in 798.00 W/m2
14:25 83.3 °F 72.5 °F 29.77 in SW 10.3 mph 13.8 mph 70% 0.00 in 800.00 W/m2
14:26 83.7 °F 72.9 °F 29.78 in WSW 9.2 mph 19.5 mph 70% 0.00 in 782.00 W/m2
14:28 83.8 °F 71.2 °F 29.78 in WSW 9.2 mph 20.7 mph 66% 0.00 in 793.00 W/m2
14:31 83.6 °F 71.1 °F 29.78 in WSW 4.6 mph 20.7 mph 66% 0.00 in 793.00 W/m2
14:32 83.6 °F 70.6 °F 29.78 in SSW 5.8 mph 8.1 mph 65% 0.00 in 802.00 W/m2
14:33 83.7 °F 70.7 °F 29.78 in WSW 11.5 mph 13.8 mph 65% 0.00 in 779.00 W/m2
14:34 83.8 °F 70.3 °F 29.78 in WSW 14.9 mph 14.9 mph 64% 0.00 in 805.00 W/m2
14:36 84.0 °F 71.0 °F 29.78 in SW 12.6 mph 16.1 mph 65% 0.00 in 814.00 W/m2
14:37 84.1 °F 69.7 °F 29.78 in SW 14.9 mph 17.2 mph 62% 0.00 in 740.00 W/m2
14:38 84.1 °F 69.7 °F 29.78 in SW 11.5 mph 17.2 mph 62% 0.00 in 728.00 W/m2
14:39 84.0 °F 70.1 °F 29.78 in West 9.2 mph 17.2 mph 63% 0.00 in 777.00 W/m2
14:41 83.8 °F 69.4 °F 29.78 in WSW 12.6 mph 18.4 mph 62% 0.00 in 749.00 W/m2
14:43 83.9 °F 70.0 °F 29.78 in WSW 11.5 mph 13.8 mph 63% 0.00 in 809.00 W/m2
14:44 84.0 °F 70.1 °F 29.78 in West 11.5 mph 13.8 mph 63% 0.00 in 812.00 W/m2
14:45 84.1 °F 70.2 °F 29.78 in WSW 6.9 mph 13.8 mph 63% 0.00 in 812.00 W/m2
14:47 84.0 °F 68.6 °F 29.78 in West 13.8 mph 13.8 mph 60% 0.00 in 763.00 W/m2
14:48 83.9 °F 69.0 °F 29.78 in West 9.2 mph 13.8 mph 61% 0.00 in 763.00 W/m2
14:49 83.8 °F 69.4 °F 29.78 in West 6.9 mph 13.8 mph 62% 0.00 in 763.00 W/m2
14:50 83.6 °F 69.2 °F 29.78 in West 10.3 mph 13.8 mph 62% 0.00 in 766.00 W/m2
14:53 83.5 °F 70.1 °F 29.78 in WSW 6.9 mph 14.9 mph 64% 0.00 in 759.00 W/m2
14:54 83.6 °F 70.6 °F 29.78 in WSW 8.1 mph 14.9 mph 65% 0.00 in 759.00 W/m2
14:56 83.9 °F 69.0 °F 29.78 in SW 18.4 mph 20.7 mph 61% 0.00 in 763.00 W/m2
14:57 83.9 °F 68.5 °F 29.78 in WSW 8.1 mph 19.5 mph 60% 0.00 in 729.00 W/m2
14:59 83.9 °F 69.5 °F 29.78 in WSW 12.6 mph 20.7 mph 62% 0.00 in 754.00 W/m2
15:00 83.9 °F 69.0 °F 29.78 in WSW 13.8 mph 20.7 mph 61% 0.00 in 751.00 W/m2
15:03 83.8 °F 68.4 °F 29.78 in WSW 14.9 mph 16.1 mph 60% 0.00 in 747.00 W/m2
15:05 83.5 °F 68.2 °F 29.78 in WNW 8.1 mph 16.1 mph 60% 0.00 in 654.00 W/m2
15:06 83.4 °F 68.6 °F 29.78 in West 14.9 mph 17.2 mph 61% 0.00 in 721.00 W/m2
15:08 83.3 °F 68.5 °F 29.78 in West 6.9 mph 18.4 mph 61% 0.00 in 707.00 W/m2
15:10 83.2 °F 68.4 °F 29.78 in WNW 8.1 mph 18.4 mph 61% 0.00 in 710.00 W/m2
15:11 83.3 °F 68.9 °F 29.78 in West 10.3 mph 18.4 mph 62% 0.00 in 687.00 W/m2
15:12 83.3 °F 68.9 °F 29.78 in WSW 10.3 mph 14.9 mph 62% 0.00 in 722.00 W/m2
15:13 83.4 °F 69.0 °F 29.78 in SW 6.9 mph 18.4 mph 62% 0.00 in 733.00 W/m2
15:15 83.5 °F 69.6 °F 29.78 in WSW 5.8 mph 18.4 mph 63% 0.00 in 689.00 W/m2
15:16 83.6 °F 70.1 °F 29.78 in WSW 5.8 mph 18.4 mph 64% 0.00 in 675.00 W/m2
15:17 83.8 °F 69.9 °F 29.78 in WSW 13.8 mph 16.1 mph 63% 0.00 in 701.00 W/m2
15:18 83.9 °F 70.0 °F 29.78 in WSW 14.9 mph 16.1 mph 63% 0.00 in 726.00 W/m2
15:20 84.0 °F 69.1 °F 29.78 in WSW 5.8 mph 16.1 mph 61% 0.00 in 733.00 W/m2
15:21 84.0 °F 69.6 °F 29.78 in WSW 6.9 mph 13.8 mph 62% 0.00 in 726.00 W/m2
15:22 84.1 °F 70.2 °F 29.78 in SW 8.1 mph 13.8 mph 63% 0.00 in 684.00 W/m2
15:25 84.2 °F 69.3 °F 29.78 in SW 16.1 mph 16.1 mph 61% 0.00 in 666.00 W/m2
15:26 84.1 °F 68.2 °F 29.78 in SW 11.5 mph 13.8 mph 59% 0.00 in 726.00 W/m2
15:27 84.1 °F 68.2 °F 29.78 in West 6.9 mph 13.8 mph 59% 0.00 in 633.00 W/m2
15:28 84.0 °F 68.6 °F 29.78 in West 13.8 mph 13.8 mph 60% 0.00 in 707.00 W/m2
15:30 83.8 °F 69.4 °F 29.78 in WNW 10.3 mph 21.9 mph 62% 0.00 in 677.00 W/m2
15:31 83.6 °F 68.7 °F 29.78 in WSW 16.1 mph 17.2 mph 61% 0.00 in 677.00 W/m2
15:32 83.6 °F 68.7 °F 29.78 in SW 10.3 mph 17.2 mph 61% 0.00 in 677.00 W/m2
15:34 83.2 °F 68.4 °F 29.78 in SW 13.8 mph 18.4 mph 61% 0.00 in 654.00 W/m2
15:36 82.9 °F 68.6 °F 29.78 in West 20.7 mph 20.7 mph 62% 0.00 in 680.00 W/m2
15:37 82.9 °F 69.0 °F 29.78 in WSW 20.7 mph 20.7 mph 63% 0.00 in 640.00 W/m2
15:39 83.0 °F 68.7 °F 29.78 in WSW 12.6 mph 20.7 mph 62% 0.00 in 668.00 W/m2
15:40 83.0 °F 69.1 °F 29.78 in WSW 6.9 mph 20.7 mph 63% 0.00 in 673.00 W/m2
15:41 83.0 °F 69.1 °F 29.78 in West 12.6 mph 20.7 mph 63% 0.00 in 608.00 W/m2
15:42 82.9 °F 69.0 °F 29.78 in SSW 17.2 mph 17.2 mph 63% 0.00 in 624.00 W/m2
15:44 83.0 °F 69.6 °F 29.78 in West 12.6 mph 17.2 mph 64% 0.00 in 570.00 W/m2
15:46 82.8 °F 68.5 °F 29.78 in WSW 12.6 mph 17.2 mph 62% 0.00 in 612.00 W/m2
15:47 82.8 °F 68.9 °F 29.78 in WNW 9.2 mph 10.3 mph 63% 0.00 in 643.00 W/m2
15:48 82.8 °F 68.9 °F 29.78 in West 18.4 mph 18.4 mph 63% 0.00 in 642.00 W/m2
15:50 82.7 °F 68.8 °F 29.77 in West 10.3 mph 19.5 mph 63% 0.00 in 464.00 W/m2
15:51 82.5 °F 68.6 °F 29.77 in WSW 10.3 mph 12.6 mph 63% 0.00 in 464.00 W/m2
15:52 82.4 °F 69.0 °F 29.77 in WSW 12.6 mph 12.6 mph 64% 0.00 in 659.00 W/m2
15:53 82.4 °F 69.0 °F 29.77 in West 9.2 mph 12.6 mph 64% 0.00 in 659.00 W/m2
15:56 82.6 °F 68.7 °F 29.77 in SSW 10.3 mph 14.9 mph 63% 0.00 in 640.00 W/m2
15:57 82.7 °F 68.8 °F 29.77 in SW 9.2 mph 17.2 mph 63% 0.00 in 633.00 W/m2
15:58 82.7 °F 68.8 °F 29.77 in WNW 5.8 mph 17.2 mph 63% 0.00 in 633.00 W/m2
16:00 82.9 °F 69.0 °F 29.77 in South 14.9 mph 17.2 mph 63% 0.00 in 561.00 W/m2
16:01 82.9 °F 68.6 °F 29.78 in West 5.8 mph 11.5 mph 62% 0.00 in 492.00 W/m2
16:02 82.9 °F 68.6 °F 29.78 in WNW 8.1 mph 11.5 mph 62% 0.00 in 492.00 W/m2
16:03 82.9 °F 68.1 °F 29.78 in West 12.6 mph 16.1 mph 61% 0.00 in 462.00 W/m2
16:05 82.5 °F 67.2 °F 29.78 in SW 12.6 mph 19.5 mph 60% 0.00 in 557.00 W/m2
16:07 82.3 °F 68.0 °F 29.78 in WNW 10.3 mph 18.4 mph 62% 0.00 in 434.00 W/m2
16:08 82.2 °F 67.9 °F 29.78 in WSW 11.5 mph 18.4 mph 62% 0.00 in 438.00 W/m2
16:09 82.2 °F 67.9 °F 29.78 in WSW 5.8 mph 18.4 mph 62% 0.00 in 526.00 W/m2
16:11 82.2 °F 68.4 °F 29.78 in SW 11.5 mph 11.5 mph 63% 0.00 in 494.00 W/m2
16:13 82.3 °F 68.5 °F 29.78 in WSW 6.9 mph 11.5 mph 63% 0.00 in 548.00 W/m2
16:14 82.2 °F 67.9 °F 29.78 in WNW 9.2 mph 13.8 mph 62% 0.00 in 475.00 W/m2
16:15 82.1 °F 67.8 °F 29.78 in West 8.1 mph 13.8 mph 62% 0.00 in 475.00 W/m2
16:18 82.1 °F 68.3 °F 29.78 in WSW 9.2 mph 18.4 mph 63% 0.00 in 512.00 W/m2
16:19 82.1 °F 68.7 °F 29.78 in West 9.2 mph 20.7 mph 64% 0.00 in 555.00 W/m2
16:20 82.1 °F 68.3 °F 29.78 in SW 9.2 mph 20.7 mph 63% 0.00 in 547.00 W/m2
16:21 82.0 °F 68.6 °F 29.78 in WSW 12.6 mph 20.7 mph 64% 0.00 in 563.00 W/m2
16:24 82.2 °F 68.4 °F 29.78 in WNW 17.2 mph 18.4 mph 63% 0.00 in 550.00 W/m2
16:25 82.2 °F 68.8 °F 29.78 in WSW 17.2 mph 18.4 mph 64% 0.00 in 552.00 W/m2
16:26 82.2 °F 68.8 °F 29.78 in NNW 10.3 mph 18.4 mph 64% 0.00 in 555.00 W/m2
16:27 82.2 °F 68.4 °F 29.78 in WSW 9.2 mph 19.5 mph 63% 0.00 in 506.00 W/m2
16:28 82.1 °F 68.7 °F 29.78 in WSW 9.2 mph 19.5 mph 64% 0.00 in 408.00 W/m2
16:29 82.2 °F 68.4 °F 29.78 in WSW 5.8 mph 19.5 mph 63% 0.00 in 408.00 W/m2
16:31 82.3 °F 68.9 °F 29.79 in SW 13.8 mph 13.8 mph 64% 0.00 in 515.00 W/m2
16:32 82.3 °F 68.9 °F 29.79 in WNW 14.9 mph 18.4 mph 64% 0.00 in 513.00 W/m2
16:33 82.4 °F 68.6 °F 29.79 in West 17.2 mph 18.4 mph 63% 0.00 in 517.00 W/m2
16:35 82.3 °F 68.5 °F 29.79 in West 10.3 mph 18.4 mph 63% 0.00 in 513.00 W/m2
16:37 82.1 °F 69.2 °F 29.79 in WSW 6.9 mph 13.8 mph 65% 0.00 in 501.00 W/m2
16:38 82.2 °F 69.7 °F 29.79 in SW 4.6 mph 13.8 mph 66% 0.00 in 494.00 W/m2
16:40 82.3 °F 68.9 °F 29.78 in WSW 12.6 mph 14.9 mph 64% 0.00 in 452.00 W/m2
16:43 82.4 °F 69.5 °F 29.79 in West 11.5 mph 14.9 mph 65% 0.00 in 455.00 W/m2
16:44 82.4 °F 69.5 °F 29.79 in WSW 13.8 mph 16.1 mph 65% 0.00 in 234.00 W/m2
16:45 82.4 °F 69.9 °F 29.79 in WSW 17.2 mph 17.2 mph 66% 0.00 in 234.00 W/m2
16:48 82.1 °F 69.2 °F 29.79 in WSW 13.8 mph 18.4 mph 65% 0.00 in 193.00 W/m2
16:49 82.1 °F 69.2 °F 29.79 in WSW 17.2 mph 18.4 mph 65% 0.00 in 144.00 W/m2
16:50 81.9 °F 69.0 °F 29.79 in SW 12.6 mph 18.4 mph 65% 0.00 in 151.00 W/m2
16:51 81.8 °F 68.9 °F 29.79 in WSW 13.8 mph 18.4 mph 65% 0.00 in 98.00 W/m2
16:55 81.6 °F 68.7 °F 29.79 in WSW 17.2 mph 18.4 mph 65% 0.00 in 105.00 W/m2
16:56 81.6 °F 68.7 °F 29.79 in West 14.9 mph 18.4 mph 65% 0.00 in 88.00 W/m2
16:57 81.6 °F 68.7 °F 29.79 in SW 19.5 mph 20.7 mph 65% 0.00 in 102.00 W/m2
16:59 81.4 °F 68.5 °F 29.79 in SW 13.8 mph 20.7 mph 65% 0.00 in 90.00 W/m2
17:01 81.2 °F 68.3 °F 29.79 in SW 12.6 mph 20.7 mph 65% 0.00 in 93.00 W/m2
17:02 81.2 °F 68.8 °F 29.79 in WSW 13.8 mph 14.9 mph 66% 0.00 in 81.00 W/m2
17:04 81.0 °F 68.6 °F 29.79 in WSW 14.9 mph 17.2 mph 66% 0.00 in 113.00 W/m2
17:06 81.0 °F 68.6 °F 29.79 in SSW 14.9 mph 17.2 mph 66% 0.00 in 102.00 W/m2
17:07 81.0 °F 68.6 °F 29.79 in WSW 10.3 mph 14.9 mph 66% 0.00 in 97.00 W/m2
17:08 80.9 °F 68.5 °F 29.79 in WSW 14.9 mph 18.4 mph 66% 0.00 in 98.00 W/m2
17:11 80.8 °F 68.4 °F 29.79 in SW 6.9 mph 20.7 mph 66% 0.00 in 162.00 W/m2
17:12 80.8 °F 69.3 °F 29.79 in West 8.1 mph 9.2 mph 68% 0.00 in 179.00 W/m2
17:13 80.8 °F 68.8 °F 29.79 in West 9.2 mph 11.5 mph 67% 0.00 in 160.00 W/m2
17:15 80.8 °F 68.8 °F 29.79 in WSW 10.3 mph 12.6 mph 67% 0.00 in 181.00 W/m2
17:17 80.7 °F 68.7 °F 29.79 in SSW 8.1 mph 9.2 mph 67% 0.00 in 116.00 W/m2
17:18 80.7 °F 69.2 °F 29.79 in WSW 13.8 mph 13.8 mph 68% 0.00 in 95.00 W/m2
17:19 80.6 °F 68.6 °F 29.79 in West 8.1 mph 17.2 mph 67% 0.00 in 91.00 W/m2
17:21 80.5 °F 68.5 °F 29.79 in WSW 10.3 mph 11.5 mph 67% 0.00 in 134.00 W/m2
17:22 80.5 °F 68.5 °F 29.79 in WSW 14.9 mph 14.9 mph 67% 0.00 in 120.00 W/m2
17:23 80.4 °F 68.9 °F 29.79 in WNW 12.6 mph 17.2 mph 68% 0.00 in 120.00 W/m2
17:24 80.5 °F 68.5 °F 29.79 in SW 11.5 mph 17.2 mph 67% 0.00 in 111.00 W/m2
17:27 80.4 °F 68.4 °F 29.79 in SW 9.2 mph 12.6 mph 67% 0.00 in 111.00 W/m2
17:28 80.4 °F 68.4 °F 29.79 in WSW 8.1 mph 12.6 mph 67% 0.00 in 107.00 W/m2
17:29 80.4 °F 68.9 °F 29.79 in WSW 9.2 mph 12.6 mph 68% 0.00 in 102.00 W/m2
17:30 80.4 °F 68.9 °F 29.79 in WSW 4.6 mph 12.6 mph 68% 0.00 in 100.00 W/m2
17:31 80.4 °F 69.3 °F 29.79 in West 4.6 mph 6.9 mph 69% 0.00 in 105.00 W/m2
17:32 80.4 °F 69.3 °F 29.79 in WSW 5.8 mph 9.2 mph 69% 0.00 in 104.00 W/m2
17:34 80.5 °F 69.4 °F 29.79 in WSW 8.1 mph 10.3 mph 69% 0.00 in 93.00 W/m2
17:35 80.5 °F 69.4 °F 29.79 in SW 5.8 mph 10.3 mph 69% 0.00 in 123.00 W/m2
17:36 80.5 °F 69.4 °F 29.79 in SW 12.6 mph 12.6 mph 69% 0.00 in 123.00 W/m2
17:37 80.6 °F 69.5 °F 29.79 in WSW 8.1 mph 14.9 mph 69% 0.00 in 114.00 W/m2
17:38 80.6 °F 69.5 °F 29.79 in WSW 8.1 mph 14.9 mph 69% 0.00 in 105.00 W/m2
17:40 80.6 °F 69.5 °F 29.79 in West 9.2 mph 14.9 mph 69% 0.00 in 109.00 W/m2
17:41 80.6 °F 69.5 °F 29.79 in SSW 5.8 mph 14.9 mph 69% 0.00 in 114.00 W/m2
17:43 80.6 °F 69.5 °F 29.79 in SW 9.2 mph 12.6 mph 69% 0.00 in 141.00 W/m2
17:45 80.7 °F 69.2 °F 29.79 in WSW 9.2 mph 12.6 mph 68% 0.00 in 155.00 W/m2
17:46 80.7 °F 69.2 °F 29.79 in West 9.2 mph 12.6 mph 68% 0.00 in 132.00 W/m2
17:48 80.7 °F 69.2 °F 29.79 in WSW 5.8 mph 14.9 mph 68% 0.00 in 121.00 W/m2
17:50 80.7 °F 69.2 °F 29.80 in WSW 4.6 mph 14.9 mph 68% 0.00 in 114.00 W/m2
17:51 80.7 °F 69.2 °F 29.80 in West 9.2 mph 14.9 mph 68% 0.00 in 153.00 W/m2
17:52 80.6 °F 69.1 °F 29.80 in SW 5.8 mph 8.1 mph 68% 0.00 in 172.00 W/m2
17:53 80.6 °F 69.5 °F 29.80 in SW 8.1 mph 10.3 mph 69% 0.00 in 62.00 W/m2
17:55 80.7 °F 69.6 °F 29.80 in SW 9.2 mph 12.6 mph 69% 0.00 in 153.00 W/m2
17:56 80.7 °F 69.6 °F 29.80 in West 9.2 mph 9.2 mph 69% 0.00 in 178.00 W/m2
17:57 80.7 °F 69.2 °F 29.80 in WSW 12.6 mph 16.1 mph 68% 0.00 in 246.00 W/m2
17:58 80.6 °F 69.1 °F 29.80 in WSW 10.3 mph 16.1 mph 68% 0.00 in 264.00 W/m2
17:59 80.6 °F 69.1 °F 29.80 in WSW 10.3 mph 16.1 mph 68% 0.00 in 269.00 W/m2
18:01 80.7 °F 69.2 °F 29.80 in WSW 13.8 mph 17.2 mph 68% 0.00 in 265.00 W/m2
18:03 80.6 °F 69.1 °F 29.80 in West 9.2 mph 13.8 mph 68% 0.00 in 148.00 W/m2
18:04 80.6 °F 69.1 °F 29.80 in WSW 10.3 mph 13.8 mph 68% 0.00 in 148.00 W/m2
18:05 80.5 °F 69.0 °F 29.80 in WSW 12.6 mph 13.8 mph 68% 0.00 in 74.00 W/m2
18:06 80.4 °F 68.9 °F 29.80 in SSW 6.9 mph 6.9 mph 68% 0.00 in 65.00 W/m2
18:08 80.2 °F 69.1 °F 29.80 in SW 3.4 mph 9.2 mph 69% 0.00 in 56.00 W/m2
18:10 79.9 °F 68.8 °F 29.80 in WSW 6.9 mph 13.8 mph 69% 0.00 in 53.00 W/m2
18:11 79.8 °F 68.7 °F 29.80 in SW 8.1 mph 13.8 mph 69% 0.00 in 202.00 W/m2
18:12 79.8 °F 69.2 °F 29.80 in SW 5.8 mph 9.2 mph 70% 0.00 in 202.00 W/m2
18:14 79.8 °F 69.2 °F 29.80 in WSW 10.3 mph 12.6 mph 70% 0.00 in 202.00 W/m2
18:17 79.7 °F 68.6 °F 29.80 in WSW 8.1 mph 10.3 mph 69% 0.00 in 56.00 W/m2
18:18 79.7 °F 68.6 °F 29.80 in SW 6.9 mph 12.6 mph 69% 0.00 in 65.00 W/m2
18:22 79.2 °F 68.6 °F 29.80 in WSW 8.1 mph 16.1 mph 70% 0.00 in 111.00 W/m2
18:23 79.1 °F 68.5 °F 29.80 in SW 6.9 mph 16.1 mph 70% 0.00 in 153.00 W/m2
18:24 79.1 °F 68.5 °F 29.80 in SW 10.3 mph 16.1 mph 70% 0.00 in 153.00 W/m2
18:26 79.2 °F 69.0 °F 29.80 in SSW 8.1 mph 16.1 mph 71% 0.00 in 139.00 W/m2
18:28 79.3 °F 68.7 °F 29.80 in SSW 8.1 mph 12.6 mph 70% 0.00 in 139.00 W/m2
18:29 79.4 °F 68.8 °F 29.80 in WSW 12.6 mph 16.1 mph 70% 0.00 in 130.00 W/m2
18:30 79.4 °F 68.8 °F 29.80 in WSW 11.5 mph 16.1 mph 70% 0.00 in 123.00 W/m2
18:31 79.4 °F 68.8 °F 29.80 in SW 5.8 mph 16.1 mph 70% 0.00 in 118.00 W/m2
18:34 79.4 °F 68.8 °F 29.80 in WSW 1.1 mph 10.3 mph 70% 0.00 in 104.00 W/m2
18:35 79.5 °F 69.3 °F 29.80 in SSW 3.4 mph 10.3 mph 71% 0.00 in 100.00 W/m2
18:36 79.4 °F 69.2 °F 29.80 in WSW 5.8 mph 8.1 mph 71% 0.00 in 91.00 W/m2
18:37 79.4 °F 69.6 °F 29.80 in SW 2.3 mph 8.1 mph 72% 0.00 in 93.00 W/m2
18:39 79.2 °F 69.4 °F 29.80 in WSW 2.3 mph 9.2 mph 72% 0.00 in 84.00 W/m2
18:40 79.1 °F 69.3 °F 29.80 in WSW 9.2 mph 11.5 mph 72% 0.00 in 81.00 W/m2
18:42 79.0 °F 69.2 °F 29.80 in WSW 5.8 mph 9.2 mph 72% 0.00 in 76.00 W/m2
18:43 79.0 °F 69.2 °F 29.80 in SW 3.4 mph 9.2 mph 72% 0.00 in 67.00 W/m2
18:44 78.9 °F 69.1 °F 29.80 in SW 8.1 mph 10.3 mph 72% 0.00 in 67.00 W/m2
18:45 78.8 °F 69.0 °F 29.80 in SW 4.6 mph 10.3 mph 72% 0.00 in 67.00 W/m2
18:46 78.7 °F 69.3 °F 29.80 in SSW 3.4 mph 4.6 mph 73% 0.00 in 60.00 W/m2
18:47 78.7 °F 69.3 °F 29.80 in SSW 5.8 mph 6.9 mph 73% 0.00 in 46.00 W/m2
18:48 78.6 °F 69.2 °F 29.80 in WSW 5.8 mph 8.1 mph 73% 0.00 in 35.00 W/m2
18:49 78.5 °F 69.1 °F 29.81 in SW 2.3 mph 9.2 mph 73% 0.00 in 35.00 W/m2
18:50 78.5 °F 69.1 °F 29.80 in SW 8.1 mph 9.2 mph 73% 0.00 in 44.00 W/m2
18:51 78.3 °F 68.9 °F 29.80 in SSW 8.1 mph 8.1 mph 73% 0.00 in 47.00 W/m2
18:54 78.2 °F 68.8 °F 29.80 in SW 3.4 mph 8.1 mph 73% 0.00 in 37.00 W/m2
18:55 78.1 °F 68.8 °F 29.81 in WSW 11.5 mph 11.5 mph 73% 0.00 in 30.00 W/m2
18:56 78.0 °F 68.7 °F 29.81 in SSW 5.8 mph 11.5 mph 73% 0.00 in 33.00 W/m2
18:57 77.9 °F 68.6 °F 29.81 in SW 11.5 mph 11.5 mph 73% 0.00 in 33.00 W/m2
18:59 77.7 °F 68.8 °F 29.81 in SSW 4.6 mph 11.5 mph 74% 0.00 in 26.00 W/m2
19:00 77.6 °F 68.7 °F 29.81 in WSW 8.1 mph 11.5 mph 74% 0.00 in 26.00 W/m2
19:01 77.5 °F 68.6 °F 29.81 in SW 5.8 mph 11.5 mph 74% 0.00 in 23.00 W/m2
19:03 77.3 °F 68.4 °F 29.81 in West 4.6 mph 8.1 mph 74% 0.00 in 14.00 W/m2
19:04 77.3 °F 68.8 °F 29.81 in WSW 5.8 mph 8.1 mph 75% 0.00 in 14.00 W/m2
19:06 77.0 °F 68.5 °F 29.81 in SW 4.6 mph 8.1 mph 75% 0.00 in 12.00 W/m2
19:07 76.9 °F 68.8 °F 29.81 in SSW 4.6 mph 6.9 mph 76% 0.00 in 12.00 W/m2
19:09 76.7 °F 68.6 °F 29.81 in SW 1.1 mph 6.9 mph 76% 0.00 in 11.00 W/m2
19:10 76.6 °F 68.5 °F 29.81 in SW 4.6 mph 6.9 mph 76% 0.00 in 11.00 W/m2
19:11 76.5 °F 68.8 °F 29.81 in SW 2.3 mph 3.4 mph 77% 0.00 in 9.00 W/m2
19:12 76.4 °F 68.7 °F 29.81 in Calm   3.4 mph 77% 0.00 in 9.00 W/m2
19:14 76.2 °F 68.5 °F 29.81 in SW 3.4 mph 8.1 mph 77% 0.00 in 7.00 W/m2
19:15 76.1 °F 68.8 °F 29.81 in SW 3.4 mph 8.1 mph 78% 0.00 in 7.00 W/m2
19:17 76.0 °F 68.7 °F 29.81 in SW 4.6 mph 6.9 mph 78% 0.00 in 7.00 W/m2
19:18 75.9 °F 68.6 °F 29.81 in WSW 3.4 mph 6.9 mph 78% 0.00 in 5.00 W/m2
19:20 75.8 °F 68.5 °F 29.81 in WSW 4.6 mph 8.1 mph 78% 0.00 in 5.00 W/m2
19:21 75.7 °F 68.4 °F 29.81 in SW 4.6 mph 8.1 mph 78% 0.00 in 0.00 W/m2
19:22 75.6 °F 68.3 °F 29.81 in SW 2.3 mph 4.6 mph 78% 0.00 in 0.00 W/m2
19:23 75.6 °F 68.3 °F 29.81 in SW 4.6 mph 6.9 mph 78% 0.00 in 0.00 W/m2
19:24 75.5 °F 68.2 °F 29.81 in SW 2.3 mph 6.9 mph 78% 0.00 in 0.00 W/m2
19:25 75.5 °F 68.2 °F 29.81 in WSW 6.9 mph 6.9 mph 78% 0.00 in 0.00 W/m2
19:26 75.4 °F 68.4 °F 29.81 in SSW 6.9 mph 6.9 mph 79% 0.00 in 0.00 W/m2
19:27 75.3 °F 68.3 °F 29.81 in SW 4.6 mph 8.1 mph 79% 0.00 in 0.00 W/m2
19:28 75.3 °F 68.3 °F 29.81 in SW 4.6 mph 8.1 mph 79% 0.00 in 0.00 W/m2
19:29 75.3 °F 68.3 °F 29.81 in SW 4.6 mph 8.1 mph 79% 0.00 in 0.00 W/m2
19:31 75.2 °F 68.2 °F 29.81 in SW 2.3 mph 8.1 mph 79% 0.00 in 0.00 W/m2
19:32 75.2 °F 68.2 °F 29.81 in SW 4.6 mph 5.8 mph 79% 0.00 in 0.00 W/m2
19:34 75.1 °F 68.2 °F 29.81 in SSW 2.3 mph 8.1 mph 79% 0.00 in 0.00 W/m2
19:35 75.0 °F 68.1 °F 29.81 in SW 2.3 mph 8.1 mph 79% 0.00 in 0.00 W/m2
19:36 74.9 °F 67.9 °F 29.81 in SSW 2.3 mph 8.1 mph 79% 0.00 in 0.00 W/m2
19:38 74.8 °F 67.9 °F 29.81 in SW 5.8 mph 5.8 mph 79% 0.00 in 0.00 W/m2
19:39 74.8 °F 68.2 °F 29.81 in SW 5.8 mph 6.9 mph 80% 0.00 in 0.00 W/m2
19:40 74.8 °F 68.2 °F 29.81 in SW 3.4 mph 6.9 mph 80% 0.00 in 0.00 W/m2
19:42 74.7 °F 68.1 °F 29.81 in SW 3.4 mph 3.4 mph 80% 0.00 in 0.00 W/m2
19:44 74.5 °F 67.9 °F 29.81 in SW 3.4 mph 5.8 mph 80% 0.00 in 0.00 W/m2
19:45 74.5 °F 67.9 °F 29.81 in South 5.8 mph 6.9 mph 80% 0.00 in 0.00 W/m2
19:47 74.3 °F 68.1 °F 29.81 in SSW 1.1 mph 5.8 mph 81% 0.00 in 0.00 W/m2
19:49 74.2 °F 68.0 °F 29.81 in SW 1.1 mph 9.2 mph 81% 0.00 in 0.00 W/m2
19:50 74.2 °F 68.0 °F 29.81 in SW 3.4 mph 9.2 mph 81% 0.00 in 0.00 W/m2
19:51 74.2 °F 68.0 °F 29.81 in SW 1.1 mph 9.2 mph 81% 0.00 in 0.00 W/m2
19:53 74.0 °F 67.8 °F 29.81 in SSW 3.4 mph 8.1 mph 81% 0.00 in 0.00 W/m2
19:55 74.0 °F 68.2 °F 29.81 in SW 5.8 mph 8.1 mph 82% 0.00 in 0.00 W/m2
19:58 73.9 °F 68.1 °F 29.81 in SSW 5.8 mph 8.1 mph 82% 0.00 in 0.00 W/m2
19:59 73.8 °F 68.0 °F 29.81 in South 8.1 mph 8.1 mph 82% 0.00 in 0.00 W/m2
20:00 73.8 °F 68.0 °F 29.81 in SSW 1.1 mph 8.1 mph 82% 0.00 in 0.00 W/m2
20:01 73.8 °F 68.0 °F 29.81 in South 8.1 mph 8.1 mph 82% 0.00 in 0.00 W/m2
20:03 73.7 °F 67.9 °F 29.82 in SW 2.3 mph 8.1 mph 82% 0.00 in 0.00 W/m2
20:04 73.7 °F 67.9 °F 29.82 in SW 4.6 mph 8.1 mph 82% 0.00 in 0.00 W/m2
20:05 73.6 °F 67.8 °F 29.82 in SW 4.6 mph 8.1 mph 82% 0.00 in 0.00 W/m2
20:06 73.6 °F 67.8 °F 29.82 in SSW 4.6 mph 8.1 mph 82% 0.00 in 0.00 W/m2
20:09 73.4 °F 67.9 °F 29.82 in SSW 3.4 mph 6.9 mph 83% 0.00 in 0.00 W/m2
20:10 73.4 °F 67.9 °F 29.82 in SW 5.8 mph 10.3 mph 83% 0.00 in 0.00 W/m2
20:11 73.4 °F 67.9 °F 29.82 in SW 4.6 mph 10.3 mph 83% 0.00 in 0.00 W/m2
20:15 73.3 °F 67.8 °F 29.82 in SSW 3.4 mph 8.1 mph 83% 0.00 in 0.00 W/m2
20:16 73.3 °F 67.8 °F 29.82 in Calm   8.1 mph 83% 0.00 in 0.00 W/m2
20:17 73.3 °F 67.8 °F 29.83 in SSW 5.8 mph 5.8 mph 83% 0.00 in 0.00 W/m2
20:19 73.2 °F 67.7 °F 29.83 in SW 3.4 mph 6.9 mph 83% 0.00 in 0.00 W/m2
20:21 73.2 °F 67.7 °F 29.83 in SW 4.6 mph 8.1 mph 83% 0.00 in 0.00 W/m2
20:22 73.2 °F 67.7 °F 29.83 in SW 3.4 mph 5.8 mph 83% 0.00 in 0.00 W/m2
20:23 73.1 °F 67.6 °F 29.83 in SW 1.1 mph 8.1 mph 83% 0.00 in 0.00 W/m2
20:25 73.1 °F 67.6 °F 29.83 in SW 1.1 mph 8.1 mph 83% 0.00 in 0.00 W/m2
20:27 73.1 °F 67.6 °F 29.83 in SSW 5.8 mph 5.8 mph 83% 0.00 in 0.00 W/m2
20:28 73.0 °F 67.5 °F 29.83 in SSW 4.6 mph 5.8 mph 83% 0.00 in 0.00 W/m2
20:29 73.0 °F 67.5 °F 29.83 in SSW 4.6 mph 5.8 mph 83% 0.00 in 0.00 W/m2
20:31 72.9 °F 67.4 °F 29.83 in SSW 1.1 mph 1.1 mph 83% 0.00 in 0.00 W/m2
20:32 72.9 °F 67.4 °F 29.83 in SSW 3.4 mph 4.6 mph 83% 0.00 in 0.00 W/m2
20:33 72.9 °F 67.4 °F 29.83 in SSW 1.1 mph 4.6 mph 83% 0.00 in 0.00 W/m2
20:34 72.8 °F 67.7 °F 29.84 in SSW 3.4 mph 6.9 mph 84% 0.00 in 0.00 W/m2
20:35 72.8 °F 67.7 °F 29.84 in WSW 4.6 mph 8.1 mph 84% 0.00 in 0.00 W/m2
20:38 72.7 °F 67.6 °F 29.84 in SW 6.9 mph 8.1 mph 84% 0.00 in 0.00 W/m2
20:39 72.7 °F 67.6 °F 29.84 in SW 5.8 mph 8.1 mph 84% 0.00 in 0.00 W/m2
20:40 72.7 °F 67.6 °F 29.84 in SW 8.1 mph 8.1 mph 84% 0.00 in 0.00 W/m2
20:42 72.7 °F 67.6 °F 29.84 in SW 3.4 mph 4.6 mph 84% 0.00 in 0.00 W/m2
20:43 72.6 °F 67.5 °F 29.85 in SW 4.6 mph 6.9 mph 84% 0.00 in 0.00 W/m2
20:44 72.6 °F 67.5 °F 29.85 in West 4.6 mph 6.9 mph 84% 0.00 in 0.00 W/m2
20:45 72.6 °F 67.5 °F 29.85 in WSW 3.4 mph 10.3 mph 84% 0.00 in 0.00 W/m2
Peotone Weather Data
Compliments of Weather Underground